DAL93 KLAX-YBBN

Flight info

Callsign DAL93
Flight time 13h 51m
Altitude 34000
Route SUMMR2 DINTY DCT 3457N12707W 3525N13055W 3457N13727W 3341N14131W 3148N14454W/N0488F360 2850N14920W 2528N15408W 2441N15510W 2305N15710W 2113N15908W 1850N16128W 1736N16239W 1354N16613W/N0492F380 0951N16938W 0532N17346W 0128N17747W 0049S18000E 0246S17805E/N0486F400 0640S17413E 0915S17135E 1203S16859E 1532S16549E 1847S16300E 1935S16217E 2234S15944E DCT HARVS R587 ATROP H224 TEBOT
Aircraft A359/H-SDE2E3GHIJ3J4J5LM1ORWXY/LB1D1

Departure

Time 2026-04-25 12:20
Airport Los Angeles International Airport (KLAX)

Arrival

Time 2026-04-26 02:12
Airport Brisbane International Airport (YBBN)
Time Latitude Longitude Altitude Speed Heading
2026-04-25 11:37 33.94178 -118.41090 102 ft 0 kts 83°
2026-04-25 12:07 33.94177 -118.41100 101 ft 4 kts 83°
2026-04-25 12:07 33.94174 -118.41132 97 ft 4 kts 83°
2026-04-25 12:07 33.94171 -118.41159 96 ft 2 kts 83°
2026-04-25 12:08 33.94172 -118.41188 96 ft 4 kts 118°
2026-04-25 12:08 33.94189 -118.41208 99 ft 4 kts 166°
2026-04-25 12:08 33.94213 -118.41212 98 ft 4 kts 173°
2026-04-25 12:08 33.94230 -118.41215 100 ft 0 kts 173°
2026-04-25 12:12 33.94216 -118.41213 101 ft 8 kts 173°
2026-04-25 12:12 33.94159 -118.41204 101 ft 17 kts 173°
2026-04-25 12:12 33.94015 -118.41182 100 ft 22 kts 173°
2026-04-25 12:12 33.93868 -118.41160 102 ft 21 kts 173°
2026-04-25 12:13 33.93802 -118.41146 100 ft 8 kts 157°
2026-04-25 12:13 33.93774 -118.41098 101 ft 7 kts 105°
2026-04-25 12:13 33.93772 -118.41036 99 ft 8 kts 86°
2026-04-25 12:13 33.93781 -118.40960 99 ft 14 kts 82°
2026-04-25 12:14 33.93794 -118.40838 101 ft 14 kts 83°
2026-04-25 12:14 33.93805 -118.40720 101 ft 14 kts 83°
2026-04-25 12:14 33.93818 -118.40603 100 ft 14 kts 83°
2026-04-25 12:14 33.93829 -118.40480 102 ft 18 kts 83°
2026-04-25 12:15 33.93847 -118.40302 102 ft 22 kts 82°
2026-04-25 12:15 33.93866 -118.40121 105 ft 21 kts 82°
2026-04-25 12:15 33.93885 -118.39950 105 ft 21 kts 84°
2026-04-25 12:15 33.93902 -118.39774 102 ft 21 kts 83°
2026-04-25 12:16 33.93920 -118.39600 104 ft 21 kts 83°
2026-04-25 12:16 33.93938 -118.39427 103 ft 21 kts 83°
2026-04-25 12:16 33.93957 -118.39254 100 ft 21 kts 81°
2026-04-25 12:16 33.93976 -118.39082 100 ft 20 kts 83°
2026-04-25 12:17 33.93990 -118.38915 100 ft 20 kts 84°
2026-04-25 12:17 33.94006 -118.38751 102 ft 19 kts 83°
2026-04-25 12:17 33.94022 -118.38593 102 ft 18 kts 81°
2026-04-25 12:17 33.94038 -118.38442 104 ft 18 kts 84°
2026-04-25 12:18 33.94052 -118.38293 104 ft 18 kts 83°
2026-04-25 12:18 33.94068 -118.38141 100 ft 19 kts 82°
2026-04-25 12:18 33.94058 -118.38017 101 ft 14 kts 133°
2026-04-25 12:18 33.93988 -118.38031 103 ft 11 kts 241°
2026-04-25 12:19 33.93963 -118.38220 105 ft 18 kts 263°
2026-04-25 12:19 33.93923 -118.38619 104 ft 73 kts 263°
2026-04-25 12:19 33.93835 -118.39485 102 ft 134 kts 263°
2026-04-25 12:20 33.93698 -118.40817 106 ft 185 kts 263°
2026-04-25 12:20 33.93555 -118.42373 740 ft 187 kts 264°
2026-04-25 12:20 33.93462 -118.43933 1464 ft 193 kts 266°
2026-04-25 12:20 33.93420 -118.45590 2054 ft 200 kts 268°
2026-04-25 12:21 33.93411 -118.47281 2375 ft 210 kts 264°
2026-04-25 12:21 33.93197 -118.49101 2475 ft 229 kts 256°
2026-04-25 12:21 33.92776 -118.51039 2577 ft 250 kts 252°
2026-04-25 12:21 33.92304 -118.53137 2788 ft 268 kts 254°
2026-04-25 12:22 33.91920 -118.55331 3443 ft 265 kts 260°
2026-04-25 12:22 33.91826 -118.57529 4106 ft 262 kts 269°
2026-04-25 12:22 33.91804 -118.59719 4739 ft 260 kts 268°
2026-04-25 12:22 33.91731 -118.61889 5329 ft 259 kts 267°
2026-04-25 12:23 33.91709 -118.64063 5911 ft 260 kts 271°
2026-04-25 12:23 33.91727 -118.66208 6497 ft 260 kts 271°
2026-04-25 12:23 33.91739 -118.68383 7084 ft 260 kts 270°
2026-04-25 12:23 33.91743 -118.70557 7656 ft 261 kts 270°
2026-04-25 12:24 33.91741 -118.72746 8232 ft 262 kts 269°
2026-04-25 12:24 33.91734 -118.74945 8839 ft 263 kts 269°
2026-04-25 12:24 33.91727 -118.77147 9439 ft 264 kts 269°
2026-04-25 12:24 33.91718 -118.79365 10015 ft 265 kts 268°
2026-04-25 12:25 33.91707 -118.81624 10351 ft 276 kts 268°
2026-04-25 12:25 33.91696 -118.83993 10599 ft 289 kts 268°
2026-04-25 12:25 33.91747 -118.86476 10848 ft 303 kts 271°
2026-04-25 12:25 33.91838 -118.89032 11088 ft 315 kts 271°
2026-04-25 12:26 33.91931 -118.91721 11328 ft 327 kts 270°
2026-04-25 12:26 33.92020 -118.94505 11565 ft 339 kts 270°
2026-04-25 12:26 33.92107 -118.97341 11789 ft 350 kts 270°
2026-04-25 12:26 33.92304 -119.00355 12025 ft 361 kts 278°
2026-04-25 12:27 33.93108 -119.03259 12396 ft 371 kts 294°
2026-04-25 12:27 33.94409 -119.05962 12872 ft 375 kts 298°
2026-04-25 12:27 33.95803 -119.08633 13328 ft 377 kts 298°
2026-04-25 12:27 33.97206 -119.11318 13780 ft 379 kts 298°
2026-04-25 12:28 33.98611 -119.14021 14157 ft 382 kts 298°
2026-04-25 12:28 34.00020 -119.16703 14504 ft 386 kts 300°
2026-04-25 12:28 34.01782 -119.19192 14858 ft 396 kts 313°
2026-04-25 12:28 34.03966 -119.21253 15248 ft 402 kts 319°
2026-04-25 12:29 34.06261 -119.23214 15605 ft 405 kts 320°
2026-04-25 12:29 34.08570 -119.25174 15982 ft 407 kts 320°
2026-04-25 12:29 34.10890 -119.27152 16342 ft 410 kts 320°
2026-04-25 12:29 34.13220 -119.29147 16710 ft 412 kts 320°
2026-04-25 12:30 34.15565 -119.31161 17096 ft 415 kts 320°
2026-04-25 12:30 34.17929 -119.33195 17469 ft 417 kts 320°
2026-04-25 12:30 34.20298 -119.35237 17837 ft 420 kts 319°
2026-04-25 12:30 34.22682 -119.37294 18227 ft 422 kts 320°
2026-04-25 12:31 34.25086 -119.39369 18558 ft 424 kts 320°
2026-04-25 12:31 34.27496 -119.41452 18895 ft 427 kts 320°
2026-04-25 12:31 34.29919 -119.43547 19236 ft 429 kts 319°
2026-04-25 12:31 34.32320 -119.45625 19575 ft 431 kts 319°
2026-04-25 12:32 34.34761 -119.47745 19914 ft 433 kts 319°
2026-04-25 12:32 34.37063 -119.50076 20243 ft 430 kts 310°
2026-04-25 12:32 34.38953 -119.52847 20592 ft 425 kts 299°
2026-04-25 12:32 34.40324 -119.56000 20889 ft 423 kts 288°
2026-04-25 12:33 34.41123 -119.59407 21223 ft 420 kts 277°
2026-04-25 12:33 34.41338 -119.62924 21567 ft 419 kts 266°
2026-04-25 12:33 34.40968 -119.66414 21922 ft 419 kts 255°
2026-04-25 12:33 34.40246 -119.69837 22270 ft 421 kts 256°
2026-04-25 12:34 34.39765 -119.73344 22651 ft 424 kts 262°
2026-04-25 12:34 34.39471 -119.76910 22999 ft 427 kts 263°
2026-04-25 12:34 34.39210 -119.80498 23365 ft 429 kts 263°
2026-04-25 12:34 34.39039 -119.82886 23595 ft 431 kts 263°
2026-04-25 12:35 34.38693 -119.87747 24059 ft 433 kts 263°
2026-04-25 12:35 34.38433 -119.91383 24374 ft 435 kts 263°
2026-04-25 12:35 34.38170 -119.95038 24703 ft 437 kts 263°
2026-04-25 12:35 34.37908 -119.98664 25009 ft 439 kts 263°
2026-04-25 12:36 34.37640 -120.02361 25344 ft 441 kts 263°
2026-04-25 12:36 34.37370 -120.06064 25665 ft 442 kts 263°
2026-04-25 12:36 34.37098 -120.09787 25978 ft 444 kts 263°
2026-04-25 12:36 34.36823 -120.13523 26327 ft 445 kts 263°
2026-04-25 12:37 34.36548 -120.17257 26688 ft 446 kts 263°
2026-04-25 12:37 34.36274 -120.20962 26973 ft 448 kts 263°
2026-04-25 12:37 34.35993 -120.24729 27256 ft 450 kts 263°
2026-04-25 12:37 34.35710 -120.28517 27543 ft 452 kts 263°
2026-04-25 12:38 34.35426 -120.32310 27833 ft 454 kts 263°
2026-04-25 12:38 34.35139 -120.36121 28083 ft 455 kts 263°
2026-04-25 12:38 34.34850 -120.39945 28359 ft 457 kts 263°
2026-04-25 12:38 34.34493 -120.43762 28692 ft 456 kts 259°
2026-04-25 12:39 34.33770 -120.47493 28994 ft 455 kts 251°
2026-04-25 12:39 34.32604 -120.51053 29380 ft 453 kts 245°
2026-04-25 12:39 34.31262 -120.54501 29736 ft 452 kts 244°
2026-04-25 12:39 34.29913 -120.57892 30082 ft 451 kts 244°
2026-04-25 12:40 34.28554 -120.61305 30401 ft 450 kts 244°
2026-04-25 12:40 34.27204 -120.64703 30738 ft 447 kts 244°
2026-04-25 12:40 34.25862 -120.68084 31083 ft 445 kts 244°
2026-04-25 12:40 34.24527 -120.71447 31408 ft 443 kts 244°
2026-04-25 12:41 34.23196 -120.74796 31704 ft 441 kts 244°
2026-04-25 12:41 34.21873 -120.78128 31985 ft 439 kts 244°
2026-04-25 12:41 34.20550 -120.81454 32271 ft 438 kts 244°
2026-04-25 12:41 34.19233 -120.84762 32554 ft 436 kts 244°
2026-04-25 12:42 34.17920 -120.88056 32798 ft 434 kts 244°
2026-04-25 12:42 34.17053 -120.90232 32986 ft 433 kts 244°
2026-04-25 12:42 34.15308 -120.94603 33322 ft 431 kts 244°
2026-04-25 12:42 34.14002 -120.97872 33523 ft 431 kts 244°
2026-04-25 12:43 34.12698 -121.01133 33687 ft 432 kts 244°
2026-04-25 12:43 34.11395 -121.04387 33876 ft 431 kts 244°
2026-04-25 12:43 34.08777 -121.10917 33978 ft 435 kts 244°
2026-04-25 12:44 34.06127 -121.17512 33978 ft 436 kts 244°
2026-04-25 12:45 34.02167 -121.27346 33977 ft 437 kts 244°
2026-04-25 12:45 33.98172 -121.37239 33982 ft 438 kts 244°
2026-04-25 12:46 33.95503 -121.43831 33985 ft 438 kts 244°
2026-04-25 12:46 33.92829 -121.50424 33985 ft 438 kts 244°
2026-04-25 12:47 33.90149 -121.57017 33984 ft 439 kts 244°
2026-04-25 12:47 33.87463 -121.63612 33990 ft 439 kts 244°
2026-04-25 12:48 33.84789 -121.70167 33991 ft 439 kts 244°
2026-04-25 12:48 33.82094 -121.76759 33990 ft 439 kts 244°
2026-04-25 12:49 33.79398 -121.83342 33991 ft 439 kts 244°
2026-04-25 12:49 33.76696 -121.89926 33990 ft 439 kts 244°
2026-04-25 12:50 33.73992 -121.96503 33993 ft 438 kts 244°
2026-04-25 12:50 33.71282 -122.03080 33995 ft 438 kts 244°
2026-04-25 12:51 33.68590 -122.09602 33998 ft 438 kts 244°
2026-04-25 12:51 33.65886 -122.16140 33995 ft 437 kts 244°
2026-04-25 12:52 33.63174 -122.22687 33999 ft 438 kts 244°
2026-04-25 12:52 33.60454 -122.29242 33998 ft 438 kts 244°
2026-04-25 12:53 33.57730 -122.35791 34018 ft 438 kts 244°
2026-04-25 12:53 33.55018 -122.42300 34004 ft 435 kts 244°
2026-04-25 12:54 33.52331 -122.48789 34002 ft 434 kts 245°
2026-04-25 12:54 33.50553 -122.55682 34005 ft 436 kts 259°
2026-04-25 12:55 33.50336 -122.60497 34005 ft 439 kts 270°
2026-04-25 12:55 33.51213 -122.66530 33998 ft 446 kts 283°
2026-04-25 12:55 33.52270 -122.70040 34009 ft 449 kts 286°
2026-04-25 12:56 33.54651 -122.76977 34003 ft 451 kts 288°
2026-04-25 12:56 33.57100 -122.83894 34003 ft 451 kts 288°
2026-04-25 12:57 33.59523 -122.90831 34011 ft 451 kts 287°
2026-04-25 12:57 33.61918 -122.97776 34004 ft 450 kts 287°
2026-04-25 12:58 33.64306 -123.04739 34004 ft 450 kts 287°
2026-04-25 12:58 33.66672 -123.11654 34012 ft 450 kts 287°
2026-04-25 12:59 33.69051 -123.18615 34008 ft 450 kts 286°
2026-04-25 12:59 33.71428 -123.25586 34008 ft 451 kts 286°
2026-04-25 13:00 33.73016 -123.30252 34014 ft 451 kts 286°
2026-04-25 13:00 33.75773 -123.38366 34020 ft 451 kts 286°
2026-04-25 13:01 33.78143 -123.45362 34015 ft 452 kts 286°
2026-04-25 13:01 33.80895 -123.53504 34015 ft 452 kts 286°
2026-04-25 13:02 33.82875 -123.59374 34014 ft 452 kts 286°
2026-04-25 13:02 33.85217 -123.66331 34015 ft 452 kts 286°
2026-04-25 13:03 33.87575 -123.73351 34024 ft 453 kts 286°
2026-04-25 13:03 33.89942 -123.80419 34026 ft 455 kts 286°
2026-04-25 13:04 33.92312 -123.87506 34009 ft 456 kts 285°
2026-04-25 13:04 33.94675 -123.94586 34027 ft 456 kts 285°
2026-04-25 13:05 33.97036 -124.01680 34019 ft 457 kts 285°
2026-04-25 13:05 33.99400 -124.08801 34020 ft 459 kts 285°
2026-04-25 13:06 34.01769 -124.15953 34022 ft 460 kts 285°
2026-04-25 13:06 34.04125 -124.23078 34030 ft 460 kts 285°
2026-04-25 13:07 34.06494 -124.30259 34019 ft 461 kts 285°
2026-04-25 13:07 34.08863 -124.37459 34021 ft 461 kts 285°
2026-04-25 13:08 34.11231 -124.44674 34018 ft 464 kts 285°
2026-04-25 13:08 34.13605 -124.51924 34019 ft 465 kts 285°
2026-04-25 13:09 34.15983 -124.59202 34018 ft 466 kts 285°
2026-04-25 13:09 34.18357 -124.66482 34020 ft 466 kts 285°
2026-04-25 13:10 34.20712 -124.73725 34043 ft 466 kts 285°
2026-04-25 13:10 34.23083 -124.81035 34021 ft 468 kts 285°
2026-04-25 13:11 34.25453 -124.88357 34021 ft 468 kts 285°
2026-04-25 13:11 34.27818 -124.95682 34020 ft 468 kts 285°
2026-04-25 13:12 34.30180 -125.03015 34028 ft 468 kts 285°
2026-04-25 13:12 34.32142 -125.09121 34014 ft 470 kts 285°
2026-04-25 13:13 34.34909 -125.17756 34023 ft 471 kts 285°
2026-04-25 13:13 34.37275 -125.25155 34038 ft 471 kts 285°
2026-04-25 13:14 34.39639 -125.32564 34023 ft 472 kts 285°
2026-04-25 13:14 34.41999 -125.39983 34029 ft 473 kts 285°
2026-04-25 13:15 34.44365 -125.47440 34029 ft 474 kts 285°
2026-04-25 13:15 34.46714 -125.54860 34030 ft 475 kts 285°
2026-04-25 13:16 34.49082 -125.62357 34028 ft 476 kts 285°
2026-04-25 13:16 34.51448 -125.69867 34035 ft 477 kts 285°
2026-04-25 13:17 34.53815 -125.77402 34037 ft 479 kts 285°
2026-04-25 13:17 34.56187 -125.84974 34028 ft 480 kts 285°
2026-04-25 13:18 34.58557 -125.92550 34032 ft 480 kts 285°
2026-04-25 13:18 34.60922 -126.00132 34031 ft 480 kts 285°
2026-04-25 13:19 34.63267 -126.07674 34032 ft 482 kts 286°
2026-04-25 13:19 34.65250 -126.14064 34033 ft 482 kts 286°
2026-04-25 13:20 34.67998 -126.22939 34034 ft 482 kts 286°
2026-04-25 13:20 34.70354 -126.30573 34023 ft 483 kts 286°
2026-04-25 13:21 34.72708 -126.38221 34040 ft 483 kts 286°
2026-04-25 13:21 34.75057 -126.45869 34040 ft 483 kts 286°
2026-04-25 13:22 34.77385 -126.53472 34034 ft 482 kts 286°
2026-04-25 13:23 34.80891 -126.64957 34048 ft 482 kts 287°
2026-04-25 13:23 34.83226 -126.72635 34038 ft 485 kts 287°
2026-04-25 13:24 34.85567 -126.80350 34044 ft 486 kts 287°
2026-04-25 13:24 34.87904 -126.88069 34045 ft 486 kts 287°
2026-04-25 13:25 34.90234 -126.95786 34043 ft 486 kts 287°
2026-04-25 13:25 34.92560 -127.03518 34045 ft 486 kts 287°
2026-04-25 13:26 34.94768 -127.11311 34045 ft 484 kts 282°
2026-04-25 13:26 34.96088 -127.19287 34048 ft 483 kts 278°
2026-04-25 13:27 34.97215 -127.27362 34050 ft 482 kts 277°
2026-04-25 13:27 34.98302 -127.35435 34052 ft 482 kts 277°
2026-04-25 13:28 34.99397 -127.43530 34055 ft 484 kts 277°
2026-04-25 13:28 35.00498 -127.51643 34051 ft 484 kts 278°
2026-04-25 13:29 35.01589 -127.59690 34051 ft 484 kts 278°
2026-04-25 13:29 35.02682 -127.67799 34056 ft 484 kts 278°
2026-04-25 13:30 35.04307 -127.79939 34059 ft 482 kts 278°
2026-04-25 13:31 35.05917 -127.92072 34060 ft 483 kts 278°
2026-04-25 13:31 35.06979 -128.00129 34058 ft 482 kts 278°
2026-04-25 13:32 35.08038 -128.08196 34063 ft 481 kts 278°
2026-04-25 13:32 35.09089 -128.16253 34067 ft 481 kts 278°
2026-04-25 13:33 35.10137 -128.24336 34067 ft 482 kts 278°
2026-04-25 13:33 35.11180 -128.32409 34066 ft 480 kts 278°
2026-04-25 13:34 35.12215 -128.40467 34070 ft 479 kts 278°
2026-04-25 13:34 35.13243 -128.48516 34069 ft 480 kts 278°
2026-04-25 13:35 35.14266 -128.56581 34073 ft 481 kts 278°
2026-04-25 13:35 35.15287 -128.64656 34070 ft 481 kts 278°
2026-04-25 13:36 35.16298 -128.72709 34073 ft 478 kts 278°
2026-04-25 13:36 35.17297 -128.80707 34075 ft 478 kts 278°
2026-04-25 13:37 35.18299 -128.88769 34078 ft 480 kts 278°
2026-04-25 13:37 35.19294 -128.96822 34076 ft 478 kts 278°
2026-04-25 13:38 35.20281 -129.04855 34075 ft 478 kts 278°
2026-04-25 13:38 35.21256 -129.12840 34078 ft 479 kts 278°
2026-04-25 13:39 35.22235 -129.20898 34081 ft 478 kts 278°
2026-04-25 13:39 35.23206 -129.28937 34082 ft 477 kts 278°
2026-04-25 13:40 35.24172 -129.36981 34083 ft 478 kts 278°
2026-04-25 13:40 35.25133 -129.45034 34080 ft 479 kts 278°
2026-04-25 13:41 35.26091 -129.53100 34090 ft 478 kts 278°
2026-04-25 13:41 35.27036 -129.61105 34085 ft 477 kts 278°
2026-04-25 13:42 35.27980 -129.69155 34087 ft 478 kts 278°
2026-04-25 13:42 35.28921 -129.77217 34090 ft 479 kts 278°
2026-04-25 13:43 35.29857 -129.85289 34087 ft 479 kts 278°
2026-04-25 13:43 35.30787 -129.93358 34086 ft 479 kts 278°
2026-04-25 13:44 35.31713 -130.01440 34089 ft 479 kts 278°
2026-04-25 13:44 35.32634 -130.09527 34090 ft 479 kts 278°
2026-04-25 13:45 35.33548 -130.17606 34096 ft 479 kts 278°
2026-04-25 13:45 35.34452 -130.25641 34095 ft 479 kts 278°
2026-04-25 13:46 35.35357 -130.33729 34090 ft 479 kts 278°
2026-04-25 13:46 35.36254 -130.41802 34101 ft 478 kts 278°
2026-04-25 13:47 35.37145 -130.49873 34097 ft 478 kts 279°
2026-04-25 13:47 35.37884 -130.56602 34103 ft 479 kts 278°
2026-04-25 13:48 35.38769 -130.64708 34100 ft 479 kts 278°
2026-04-25 13:48 35.39790 -130.74128 34100 ft 479 kts 278°
2026-04-25 13:49 35.40516 -130.80862 34105 ft 479 kts 278°
2026-04-25 13:49 35.41373 -130.88971 34096 ft 480 kts 277°
2026-04-25 13:50 35.41428 -130.97171 34105 ft 481 kts 269°
2026-04-25 13:50 35.41035 -131.06713 34103 ft 482 kts 268°
2026-04-25 13:51 35.40700 -131.13589 34098 ft 482 kts 268°
2026-04-25 13:51 35.40305 -131.21743 34105 ft 481 kts 268°
2026-04-25 13:52 35.39915 -131.29928 34100 ft 481 kts 268°
2026-04-25 13:52 35.39524 -131.38125 34105 ft 481 kts 268°
2026-04-25 13:53 35.39129 -131.46323 34108 ft 482 kts 268°
2026-04-25 13:53 35.38726 -131.54524 34111 ft 482 kts 268°
2026-04-25 13:54 35.38318 -131.62728 34108 ft 481 kts 268°
2026-04-25 13:54 35.37907 -131.70866 34110 ft 481 kts 268°
2026-04-25 13:55 35.37489 -131.79049 34116 ft 481 kts 268°
2026-04-25 13:55 35.37065 -131.87228 34119 ft 480 kts 267°
2026-04-25 13:56 35.36636 -131.95395 34116 ft 481 kts 267°
2026-04-25 13:56 35.36202 -132.03571 34116 ft 481 kts 268°
2026-04-25 13:57 35.35761 -132.11755 34119 ft 481 kts 268°
2026-04-25 13:57 35.35318 -132.19882 34118 ft 480 kts 267°
2026-04-25 13:58 35.34868 -132.28044 34119 ft 480 kts 267°
2026-04-25 13:58 35.34411 -132.36209 34121 ft 480 kts 267°
2026-04-25 13:59 35.33949 -132.44374 34123 ft 480 kts 267°
2026-04-25 13:59 35.33482 -132.52536 34128 ft 481 kts 267°
2026-04-25 14:00 35.33009 -132.60705 34127 ft 480 kts 267°
2026-04-25 14:00 35.32531 -132.68876 34131 ft 480 kts 267°
2026-04-25 14:01 35.32051 -132.76975 34132 ft 480 kts 266°
2026-04-25 14:01 35.31562 -132.85128 34128 ft 480 kts 266°
2026-04-25 14:02 35.31067 -132.93280 34129 ft 480 kts 267°
2026-04-25 14:02 35.30567 -133.01441 34128 ft 480 kts 266°
2026-04-25 14:03 35.30062 -133.09595 34135 ft 480 kts 267°
2026-04-25 14:03 35.29551 -133.17740 34134 ft 480 kts 266°
2026-04-25 14:04 35.29035 -133.25887 34133 ft 479 kts 266°
2026-04-25 14:04 35.28515 -133.34016 34141 ft 479 kts 266°
2026-04-25 14:05 35.27989 -133.42142 34143 ft 480 kts 266°
2026-04-25 14:05 35.27461 -133.50222 34143 ft 479 kts 266°
2026-04-25 14:06 35.26924 -133.58357 34138 ft 479 kts 266°
2026-04-25 14:06 35.26381 -133.66484 34139 ft 479 kts 266°
2026-04-25 14:07 35.25834 -133.74607 34144 ft 478 kts 266°
2026-04-25 14:07 35.25284 -133.82680 34144 ft 479 kts 266°
2026-04-25 14:08 35.24725 -133.90806 34146 ft 479 kts 266°
2026-04-25 14:08 35.24160 -133.98950 34149 ft 479 kts 266°
2026-04-25 14:09 35.23590 -134.07072 34147 ft 479 kts 267°
2026-04-25 14:09 35.23019 -134.15143 34156 ft 479 kts 267°
2026-04-25 14:10 35.22439 -134.23256 34148 ft 479 kts 267°
2026-04-25 14:10 35.21853 -134.31361 34157 ft 477 kts 267°
2026-04-25 14:11 35.21264 -134.39466 34163 ft 478 kts 267°
2026-04-25 14:11 35.20672 -134.47517 34158 ft 477 kts 268°
2026-04-25 14:12 35.20074 -134.55576 34160 ft 475 kts 268°
2026-04-25 14:12 35.19472 -134.63624 34158 ft 475 kts 268°
2026-04-25 14:13 35.18868 -134.71627 34162 ft 471 kts 268°
2026-04-25 14:13 35.18260 -134.79605 34176 ft 471 kts 268°
2026-04-25 14:14 35.17648 -134.87569 34173 ft 471 kts 268°
2026-04-25 14:14 35.17030 -134.95543 34173 ft 471 kts 268°
2026-04-25 14:15 35.16411 -135.03467 34182 ft 470 kts 268°
2026-04-25 14:15 35.15783 -135.11426 34161 ft 470 kts 268°
2026-04-25 14:16 35.15150 -135.19379 34166 ft 469 kts 269°
2026-04-25 14:16 35.14514 -135.27292 34175 ft 467 kts 269°
2026-04-25 14:17 35.13877 -135.35182 34180 ft 466 kts 269°
2026-04-25 14:17 35.13238 -135.43034 34183 ft 466 kts 269°
2026-04-25 14:18 35.12593 -135.50893 34181 ft 465 kts 269°
2026-04-25 14:18 35.11942 -135.58745 34178 ft 463 kts 269°
2026-04-25 14:19 35.11288 -135.66587 34184 ft 464 kts 269°
2026-04-25 14:19 35.10633 -135.74376 34186 ft 464 kts 269°
2026-04-25 14:20 35.09968 -135.82223 34183 ft 464 kts 268°
2026-04-25 14:20 35.09299 -135.90062 34189 ft 464 kts 268°
2026-04-25 14:21 35.08623 -135.97904 34179 ft 464 kts 268°
2026-04-25 14:21 35.07943 -136.05747 34195 ft 464 kts 268°
2026-04-25 14:22 35.07257 -136.13592 34199 ft 464 kts 268°
2026-04-25 14:22 35.06568 -136.21432 34200 ft 465 kts 268°
2026-04-25 14:23 35.05875 -136.29235 34202 ft 465 kts 267°
2026-04-25 14:23 35.05173 -136.37086 34196 ft 465 kts 267°
2026-04-25 14:24 35.04466 -136.44941 34203 ft 466 kts 267°
2026-04-25 14:24 35.03753 -136.52804 34211 ft 466 kts 267°
2026-04-25 14:25 35.03034 -136.60670 34211 ft 467 kts 267°
2026-04-25 14:25 35.02309 -136.68557 34218 ft 467 kts 267°
2026-04-25 14:26 35.01579 -136.76429 34208 ft 467 kts 267°
2026-04-25 14:26 35.00848 -136.84258 34212 ft 467 kts 267°
2026-04-25 14:27 35.00107 -136.92135 34219 ft 467 kts 267°
2026-04-25 14:27 34.99362 -137.00009 34211 ft 466 kts 267°
2026-04-25 14:28 34.98613 -137.07857 34224 ft 466 kts 267°
2026-04-25 14:28 34.97860 -137.15706 34223 ft 466 kts 267°
2026-04-25 14:29 34.97102 -137.23542 34223 ft 464 kts 267°
2026-04-25 14:29 34.96348 -137.31284 34225 ft 462 kts 267°
2026-04-25 14:30 34.95587 -137.39058 34224 ft 462 kts 268°
2026-04-25 14:30 34.94390 -137.46774 34230 ft 467 kts 257°
2026-04-25 14:30 34.93401 -137.50547 34231 ft 468 kts 256°
2026-04-25 14:31 34.91256 -137.58043 34233 ft 468 kts 256°
2026-04-25 14:31 34.89052 -137.65481 34233 ft 466 kts 256°
2026-04-25 14:32 34.86856 -137.72912 34235 ft 466 kts 256°
2026-04-25 14:32 34.84682 -137.80300 34226 ft 466 kts 256°
2026-04-25 14:33 34.82499 -137.87719 34238 ft 465 kts 256°
2026-04-25 14:33 34.80313 -137.95130 34238 ft 465 kts 256°
2026-04-25 14:34 34.78124 -138.02529 34238 ft 465 kts 256°
2026-04-25 14:34 34.75928 -138.09932 34240 ft 464 kts 256°
2026-04-25 14:35 34.73735 -138.17299 34244 ft 463 kts 256°
2026-04-25 14:35 34.71543 -138.24652 34241 ft 463 kts 256°
2026-04-25 14:36 34.69349 -138.31991 34247 ft 462 kts 256°
2026-04-25 14:36 34.67166 -138.39271 34246 ft 460 kts 256°
2026-04-25 14:37 34.64975 -138.46566 34244 ft 459 kts 256°
2026-04-25 14:37 34.62784 -138.53840 34250 ft 459 kts 256°
2026-04-25 14:38 34.60588 -138.61115 34250 ft 458 kts 256°
2026-04-25 14:38 34.58762 -138.67147 34254 ft 457 kts 256°
2026-04-25 14:39 34.56564 -138.74392 34261 ft 457 kts 256°
2026-04-25 14:39 34.54366 -138.81622 34258 ft 457 kts 256°
2026-04-25 14:40 34.52163 -138.88849 34249 ft 456 kts 256°
2026-04-25 14:40 34.49958 -138.96061 34259 ft 455 kts 256°
2026-04-25 14:41 34.47757 -139.03247 34258 ft 455 kts 256°
2026-04-25 14:41 34.45549 -139.10439 34257 ft 455 kts 256°
2026-04-25 14:42 34.43713 -139.16406 34250 ft 454 kts 256°
2026-04-25 14:42 34.41143 -139.24734 34265 ft 453 kts 256°
2026-04-25 14:43 34.38931 -139.31886 34264 ft 453 kts 256°
2026-04-25 14:43 34.36719 -139.39022 34267 ft 453 kts 255°
2026-04-25 14:44 34.34515 -139.46113 34263 ft 452 kts 255°
2026-04-25 14:44 34.32296 -139.53231 34266 ft 451 kts 255°
2026-04-25 14:45 34.30080 -139.60330 34264 ft 451 kts 255°
2026-04-25 14:45 34.27859 -139.67427 34267 ft 451 kts 255°
2026-04-25 14:46 34.25634 -139.74515 34263 ft 450 kts 255°
2026-04-25 14:46 34.23412 -139.81580 34260 ft 450 kts 255°
2026-04-25 14:47 34.21557 -139.87466 34268 ft 450 kts 255°
2026-04-25 14:47 34.18962 -139.95683 34272 ft 450 kts 255°
2026-04-25 14:48 34.16739 -140.02699 34272 ft 449 kts 255°
2026-04-25 14:48 34.14508 -140.09723 34276 ft 448 kts 255°
2026-04-25 14:49 34.12277 -140.16736 34282 ft 448 kts 255°
2026-04-25 14:49 34.10041 -140.23750 34281 ft 448 kts 255°
2026-04-25 14:50 34.07798 -140.30765 34277 ft 447 kts 255°
2026-04-25 14:50 34.05561 -140.37744 34284 ft 445 kts 255°
2026-04-25 14:51 34.03336 -140.44672 34278 ft 445 kts 254°
2026-04-25 14:51 34.01096 -140.51634 34287 ft 445 kts 254°
2026-04-25 14:52 33.98850 -140.58596 34287 ft 445 kts 254°
2026-04-25 14:52 33.96982 -140.64377 34287 ft 445 kts 254°
2026-04-25 14:53 33.94345 -140.72516 34289 ft 447 kts 254°
2026-04-25 14:53 33.92075 -140.79505 34290 ft 447 kts 254°
2026-04-25 14:54 33.89816 -140.86442 34283 ft 447 kts 254°
2026-04-25 14:54 33.87543 -140.93406 34290 ft 447 kts 254°
2026-04-25 14:55 33.85262 -141.00383 34290 ft 448 kts 254°
2026-04-25 14:55 33.82978 -141.07351 34292 ft 448 kts 254°
2026-04-25 14:56 33.80705 -141.14268 34279 ft 448 kts 254°
2026-04-25 14:56 33.78413 -141.21232 34292 ft 447 kts 254°
2026-04-25 14:57 33.76118 -141.28185 34289 ft 447 kts 253°
2026-04-25 14:57 33.73819 -141.35137 34292 ft 447 kts 254°
2026-04-25 14:58 33.71512 -141.42099 34298 ft 449 kts 253°
2026-04-25 14:58 33.69193 -141.49056 34295 ft 450 kts 252°
2026-04-25 14:59 33.66199 -141.55679 34300 ft 456 kts 245°
2026-04-25 14:59 33.62809 -141.62142 34299 ft 458 kts 244°
2026-04-25 15:00 33.59343 -141.68581 34275 ft 459 kts 244°
2026-04-25 15:00 33.55876 -141.75027 34304 ft 460 kts 244°
2026-04-25 15:01 33.52408 -141.81493 34300 ft 460 kts 244°
2026-04-25 15:01 33.48966 -141.87910 34298 ft 461 kts 244°
2026-04-25 15:02 33.45490 -141.94381 34298 ft 462 kts 244°
2026-04-25 15:02 33.42008 -142.00849 34305 ft 462 kts 244°
2026-04-25 15:03 33.38518 -142.07320 34298 ft 463 kts 244°
2026-04-25 15:03 33.35014 -142.13809 34298 ft 464 kts 244°
2026-04-25 15:04 33.31502 -142.20298 34299 ft 465 kts 244°
2026-04-25 15:04 33.28004 -142.26747 34301 ft 465 kts 244°
2026-04-25 15:05 33.24478 -142.33240 34300 ft 466 kts 244°
2026-04-25 15:06 33.19172 -142.42989 34298 ft 467 kts 244°
2026-04-25 15:06 33.15627 -142.49485 34303 ft 466 kts 244°
2026-04-25 15:07 33.12076 -142.55985 34301 ft 468 kts 244°
2026-04-25 15:07 33.08512 -142.62500 34273 ft 469 kts 244°
2026-04-25 15:08 33.04939 -142.69012 34305 ft 468 kts 244°
2026-04-25 15:08 33.01395 -142.75460 34303 ft 468 kts 244°
2026-04-25 15:09 32.97817 -142.81965 34305 ft 470 kts 244°
2026-04-25 15:09 32.92422 -142.91745 34307 ft 469 kts 243°
2026-04-25 15:10 32.88841 -142.98221 34305 ft 468 kts 243°
2026-04-25 15:11 32.83479 -143.07906 34306 ft 471 kts 243°
2026-04-25 15:11 32.79870 -143.14407 34308 ft 471 kts 243°
2026-04-25 15:12 32.74444 -143.24158 34306 ft 471 kts 243°
2026-04-25 15:12 32.72041 -143.28468 34311 ft 472 kts 243°
2026-04-25 15:13 32.65380 -143.40392 34306 ft 472 kts 243°
2026-04-25 15:14 32.61748 -143.46877 34310 ft 471 kts 243°
2026-04-25 15:14 32.58111 -143.53361 34306 ft 471 kts 243°
2026-04-25 15:15 32.54475 -143.59832 34294 ft 471 kts 242°
2026-04-25 15:15 32.50877 -143.66220 34305 ft 467 kts 242°
2026-04-25 15:16 32.47266 -143.72626 34307 ft 467 kts 242°
2026-04-25 15:16 32.41839 -143.82237 34309 ft 469 kts 242°
2026-04-25 15:17 32.36408 -143.91819 34305 ft 465 kts 242°
2026-04-25 15:18 32.32797 -143.98179 34307 ft 465 kts 242°
2026-04-25 15:18 32.27394 -144.07681 34293 ft 466 kts 242°
2026-04-25 15:19 32.24974 -144.11926 34305 ft 465 kts 242°
2026-04-25 15:19 32.20164 -144.20349 34306 ft 464 kts 242°
2026-04-25 15:20 32.16550 -144.26670 34305 ft 464 kts 242°
2026-04-25 15:20 32.12924 -144.33000 34289 ft 465 kts 242°
2026-04-25 15:21 32.09303 -144.39310 34304 ft 464 kts 242°
2026-04-25 15:21 32.05677 -144.45617 34302 ft 464 kts 242°
2026-04-25 15:22 32.02075 -144.51876 34316 ft 464 kts 242°
2026-04-25 15:22 31.98441 -144.58177 34296 ft 465 kts 242°
2026-04-25 15:23 31.94810 -144.64461 34312 ft 464 kts 242°
2026-04-25 15:23 31.91177 -144.70740 34307 ft 463 kts 242°
2026-04-25 15:24 31.87543 -144.77010 34306 ft 464 kts 242°
2026-04-25 15:24 31.85136 -144.81160 34308 ft 464 kts 242°
2026-04-25 15:25 31.80284 -144.89505 34612 ft 460 kts 242°
2026-04-25 15:25 31.78466 -144.92582 34924 ft 458 kts 240°
2026-04-25 15:25 31.76584 -144.95600 35153 ft 457 kts 239°
2026-04-25 15:26 31.74664 -144.98594 35340 ft 457 kts 239°
2026-04-25 15:26 31.72735 -145.01576 35500 ft 457 kts 239°
2026-04-25 15:26 31.70838 -145.04513 35659 ft 456 kts 239°
2026-04-25 15:26 31.68927 -145.07486 35792 ft 456 kts 239°
2026-04-25 15:27 31.67022 -145.10465 35926 ft 456 kts 239°
2026-04-25 15:27 31.65124 -145.13442 36060 ft 456 kts 239°
2026-04-25 15:27 31.61332 -145.19400 36308 ft 456 kts 240°
2026-04-25 15:28 31.60072 -145.21380 36310 ft 458 kts 239°
2026-04-25 15:28 31.56242 -145.27394 36306 ft 461 kts 239°
2026-04-25 15:29 31.52393 -145.33417 36302 ft 462 kts 239°
2026-04-25 15:29 31.48537 -145.39441 36307 ft 462 kts 239°
2026-04-25 15:30 31.44675 -145.45465 36305 ft 462 kts 239°
2026-04-25 15:30 31.40840 -145.51438 36307 ft 462 kts 239°
2026-04-25 15:31 31.36979 -145.57444 36305 ft 462 kts 239°
2026-04-25 15:31 31.33113 -145.63449 36299 ft 462 kts 239°
2026-04-25 15:32 31.29238 -145.69458 36306 ft 462 kts 239°
2026-04-25 15:32 31.25366 -145.75452 36307 ft 462 kts 239°
2026-04-25 15:33 31.19570 -145.84411 36302 ft 462 kts 239°
2026-04-25 15:33 31.15689 -145.90396 36304 ft 462 kts 239°
2026-04-25 15:34 31.11807 -145.96374 36303 ft 462 kts 239°
2026-04-25 15:34 31.08574 -146.01345 36302 ft 462 kts 239°
2026-04-25 15:35 31.02101 -146.11283 36305 ft 463 kts 239°
2026-04-25 15:36 30.96250 -146.20243 36301 ft 463 kts 239°
2026-04-25 15:36 30.92340 -146.26218 36299 ft 463 kts 239°
2026-04-25 15:37 30.88430 -146.32184 36308 ft 463 kts 238°
2026-04-25 15:37 30.84506 -146.38164 36301 ft 464 kts 238°
2026-04-25 15:38 30.80588 -146.44124 36293 ft 464 kts 238°
2026-04-25 15:38 30.76687 -146.50050 36290 ft 464 kts 238°
2026-04-25 15:39 30.72756 -146.56013 36295 ft 465 kts 238°
2026-04-25 15:39 30.68812 -146.61987 36299 ft 465 kts 238°
2026-04-25 15:40 30.65534 -146.66945 36299 ft 465 kts 238°
2026-04-25 15:40 30.60944 -146.73876 36299 ft 465 kts 238°
2026-04-25 15:41 30.56995 -146.79829 36289 ft 465 kts 238°
2026-04-25 15:41 30.53044 -146.85778 36292 ft 465 kts 238°
2026-04-25 15:42 30.49082 -146.91733 36290 ft 465 kts 238°
2026-04-25 15:42 30.45126 -146.97670 36290 ft 465 kts 238°
2026-04-25 15:43 30.41188 -147.03573 36287 ft 465 kts 238°
2026-04-25 15:43 30.37222 -147.09508 36290 ft 466 kts 238°
2026-04-25 15:44 30.33253 -147.15439 36290 ft 466 kts 237°
2026-04-25 15:44 30.29282 -147.21364 36289 ft 466 kts 237°
2026-04-25 15:45 30.25308 -147.27285 36267 ft 466 kts 237°
2026-04-25 15:45 30.21999 -147.32208 36288 ft 467 kts 237°
2026-04-25 15:46 30.17356 -147.39106 36288 ft 467 kts 237°
2026-04-25 15:46 30.13354 -147.45042 36290 ft 467 kts 237°
2026-04-25 15:47 30.09358 -147.50960 36290 ft 467 kts 237°
2026-04-25 15:47 30.05380 -147.56844 36288 ft 468 kts 237°
2026-04-25 15:48 30.01372 -147.62764 36287 ft 468 kts 237°
2026-04-25 15:48 29.97360 -147.68679 36280 ft 468 kts 237°
2026-04-25 15:49 29.93342 -147.74594 36290 ft 468 kts 237°
2026-04-25 15:49 29.89327 -147.80499 36274 ft 468 kts 237°
2026-04-25 15:50 29.85296 -147.86417 36282 ft 469 kts 237°
2026-04-25 15:50 29.81270 -147.92319 36282 ft 469 kts 236°
2026-04-25 15:51 29.77916 -147.97228 36288 ft 469 kts 236°
2026-04-25 15:51 29.73227 -148.04079 36282 ft 469 kts 236°
2026-04-25 15:52 29.69173 -148.09981 36279 ft 469 kts 236°
2026-04-25 15:52 29.65130 -148.15867 36276 ft 469 kts 236°
2026-04-25 15:53 29.61082 -148.21758 36276 ft 469 kts 236°
2026-04-25 15:53 29.57065 -148.27596 36281 ft 468 kts 236°
2026-04-25 15:54 29.53017 -148.33471 36286 ft 469 kts 236°
2026-04-25 15:54 29.48960 -148.39350 36270 ft 469 kts 236°
2026-04-25 15:55 29.44904 -148.45219 36270 ft 469 kts 236°
2026-04-25 15:55 29.40849 -148.51078 36277 ft 469 kts 236°
2026-04-25 15:56 29.36782 -148.56946 36269 ft 469 kts 236°
2026-04-25 15:56 29.32738 -148.62773 36269 ft 470 kts 236°
2026-04-25 15:57 29.28656 -148.68646 36273 ft 470 kts 236°
2026-04-25 15:57 29.24580 -148.74502 36274 ft 470 kts 236°
2026-04-25 15:58 29.20502 -148.80353 36272 ft 470 kts 236°
2026-04-25 15:58 29.16447 -148.86163 36268 ft 470 kts 236°
2026-04-25 15:59 29.12353 -148.92020 36268 ft 470 kts 236°
2026-04-25 15:59 29.08260 -148.97867 36268 ft 470 kts 236°
2026-04-25 16:00 29.05547 -149.01738 36269 ft 470 kts 236°
2026-04-25 16:00 29.00091 -149.09512 36266 ft 470 kts 236°
2026-04-25 16:01 28.96000 -149.15332 36262 ft 470 kts 236°
2026-04-25 16:01 28.91903 -149.21152 36262 ft 470 kts 236°
2026-04-25 16:02 28.87804 -149.26968 36265 ft 470 kts 236°
2026-04-25 16:02 28.83705 -149.32775 36268 ft 470 kts 236°
2026-04-25 16:03 28.79688 -149.38635 36260 ft 468 kts 237°
2026-04-25 16:03 28.75787 -149.44578 36257 ft 468 kts 237°
2026-04-25 16:04 28.71908 -149.50475 36260 ft 468 kts 237°
2026-04-25 16:04 28.67979 -149.56392 36254 ft 468 kts 237°
2026-04-25 16:05 28.64041 -149.62292 36243 ft 468 kts 236°
2026-04-25 16:06 28.58110 -149.71160 36256 ft 469 kts 236°
2026-04-25 16:06 28.54147 -149.77075 36254 ft 469 kts 236°
2026-04-25 16:07 28.50193 -149.82971 36252 ft 469 kts 236°
2026-04-25 16:07 28.46230 -149.88871 36246 ft 469 kts 236°
2026-04-25 16:08 28.42260 -149.94775 36249 ft 470 kts 236°
2026-04-25 16:08 28.38312 -150.00637 36246 ft 470 kts 236°
2026-04-25 16:09 28.34332 -150.06538 36247 ft 470 kts 236°
2026-04-25 16:09 28.30349 -150.12436 36244 ft 470 kts 236°
2026-04-25 16:10 28.26363 -150.18331 36242 ft 470 kts 236°
2026-04-25 16:10 28.22399 -150.24184 36236 ft 471 kts 236°
2026-04-25 16:11 28.18404 -150.30076 36246 ft 471 kts 236°
2026-04-25 16:11 28.14410 -150.35957 36240 ft 471 kts 236°
2026-04-25 16:12 28.10410 -150.41839 36242 ft 471 kts 236°
2026-04-25 16:12 28.06410 -150.47714 36227 ft 472 kts 236°
2026-04-25 16:13 28.02415 -150.53575 36240 ft 473 kts 236°
2026-04-25 16:13 27.98385 -150.59476 36239 ft 473 kts 236°
2026-04-25 16:14 27.94351 -150.65375 36239 ft 473 kts 236°
2026-04-25 16:14 27.90311 -150.71275 36231 ft 473 kts 236°
2026-04-25 16:15 27.86276 -150.77160 36236 ft 473 kts 236°
2026-04-25 16:15 27.82257 -150.83014 36234 ft 473 kts 236°
2026-04-25 16:16 27.78218 -150.88889 36236 ft 473 kts 236°
2026-04-25 16:16 27.74858 -150.93770 36236 ft 473 kts 236°
2026-04-25 16:17 27.70808 -150.99647 36231 ft 473 kts 236°
2026-04-25 16:17 27.66762 -151.05510 36225 ft 475 kts 235°
2026-04-25 16:18 27.62695 -151.11396 36229 ft 475 kts 235°
2026-04-25 16:18 27.58628 -151.17273 36230 ft 475 kts 235°
2026-04-25 16:19 27.54554 -151.23151 36229 ft 475 kts 235°
2026-04-25 16:19 27.50506 -151.28985 36227 ft 475 kts 235°
2026-04-25 16:20 27.44366 -151.37820 36225 ft 478 kts 235°
2026-04-25 16:21 27.38227 -151.46635 36227 ft 478 kts 235°
2026-04-25 16:21 27.34113 -151.52532 36224 ft 478 kts 235°
2026-04-25 16:22 27.30001 -151.58418 36222 ft 478 kts 235°
2026-04-25 16:22 27.25886 -151.64302 36222 ft 479 kts 235°
2026-04-25 16:23 27.21787 -151.70154 36222 ft 479 kts 235°
2026-04-25 16:23 27.17659 -151.76039 36219 ft 479 kts 235°
2026-04-25 16:24 27.13529 -151.81921 36219 ft 479 kts 235°
2026-04-25 16:24 27.09396 -151.87797 36214 ft 479 kts 235°
2026-04-25 16:25 27.05268 -151.93672 36213 ft 480 kts 235°
2026-04-25 16:25 27.01129 -151.99553 36214 ft 480 kts 234°
2026-04-25 16:26 26.97011 -152.05389 36215 ft 480 kts 234°
2026-04-25 16:26 26.92861 -152.11259 36211 ft 480 kts 234°
2026-04-25 16:27 26.88709 -152.17125 36210 ft 480 kts 234°
2026-04-25 16:27 26.84548 -152.22995 36204 ft 481 kts 234°
2026-04-25 16:28 26.80378 -152.28870 36206 ft 482 kts 234°
2026-04-25 16:28 26.76201 -152.34747 36208 ft 482 kts 234°
2026-04-25 16:29 26.72050 -152.40580 36209 ft 482 kts 234°
2026-04-25 16:29 26.67871 -152.46445 36203 ft 482 kts 234°
2026-04-25 16:30 26.63686 -152.52311 36203 ft 483 kts 234°
2026-04-25 16:30 26.59485 -152.58192 36202 ft 484 kts 234°
2026-04-25 16:31 26.55277 -152.64074 36202 ft 484 kts 234°
2026-04-25 16:31 26.51071 -152.69945 36197 ft 484 kts 234°
2026-04-25 16:32 26.46858 -152.75819 36197 ft 484 kts 234°
2026-04-25 16:32 26.42642 -152.81690 36195 ft 485 kts 234°
2026-04-25 16:33 26.38440 -152.87533 36195 ft 486 kts 234°
2026-04-25 16:33 26.34192 -152.93433 36193 ft 487 kts 234°
2026-04-25 16:34 26.29949 -152.99318 36193 ft 487 kts 234°
2026-04-25 16:34 26.25703 -153.05201 36188 ft 487 kts 234°
2026-04-25 16:35 26.21475 -153.11050 36188 ft 488 kts 234°
2026-04-25 16:35 26.17211 -153.16942 36187 ft 489 kts 234°
2026-04-25 16:36 26.12935 -153.22840 36190 ft 489 kts 234°
2026-04-25 16:36 26.08662 -153.28729 36187 ft 489 kts 234°
2026-04-25 16:37 26.04380 -153.34621 36188 ft 489 kts 234°
2026-04-25 16:37 26.00093 -153.40515 36181 ft 491 kts 233°
2026-04-25 16:38 25.95794 -153.46416 36180 ft 492 kts 234°
2026-04-25 16:38 25.91487 -153.52322 36178 ft 492 kts 233°
2026-04-25 16:39 25.87168 -153.58236 36178 ft 492 kts 233°
2026-04-25 16:39 25.82873 -153.64108 36178 ft 492 kts 233°
2026-04-25 16:40 25.78554 -153.70007 36179 ft 492 kts 233°
2026-04-25 16:40 25.74232 -153.75900 36175 ft 492 kts 233°
2026-04-25 16:41 25.69907 -153.81792 36176 ft 493 kts 233°
2026-04-25 16:41 25.63415 -153.90627 36177 ft 493 kts 233°
2026-04-25 16:42 25.59073 -153.96522 36153 ft 493 kts 233°
2026-04-25 16:42 25.54710 -154.02439 36169 ft 499 kts 233°
2026-04-25 16:43 25.50320 -154.08384 36170 ft 499 kts 233°
2026-04-25 16:43 25.45924 -154.14331 36177 ft 499 kts 233°
2026-04-25 16:44 25.41527 -154.20212 36167 ft 499 kts 232°
2026-04-25 16:44 25.37081 -154.26110 36164 ft 499 kts 232°
2026-04-25 16:45 25.32626 -154.32017 36166 ft 500 kts 233°
2026-04-25 16:45 25.28170 -154.37931 36164 ft 501 kts 232°
2026-04-25 16:46 25.23700 -154.43858 36164 ft 501 kts 232°
2026-04-25 16:46 25.20743 -154.47776 36165 ft 501 kts 232°
2026-04-25 16:47 25.14789 -154.55654 36164 ft 501 kts 232°
2026-04-25 16:47 25.10309 -154.61572 36164 ft 503 kts 232°
2026-04-25 16:48 25.05818 -154.67496 36160 ft 504 kts 232°
2026-04-25 16:48 25.01320 -154.73423 36166 ft 504 kts 232°
2026-04-25 16:49 24.96817 -154.79347 36155 ft 504 kts 232°
2026-04-25 16:49 24.92312 -154.85269 36155 ft 504 kts 232°
2026-04-25 16:50 24.87804 -154.91186 36154 ft 505 kts 232°
2026-04-25 16:50 24.83317 -154.97069 36149 ft 505 kts 232°
2026-04-25 16:51 24.78794 -155.02991 36150 ft 506 kts 232°
2026-04-25 16:51 24.75762 -155.06957 36154 ft 506 kts 232°
2026-04-25 16:52 24.69725 -155.14844 36158 ft 506 kts 232°
2026-04-25 16:52 24.65203 -155.20716 36153 ft 506 kts 231°
2026-04-25 16:53 24.58267 -155.29514 36153 ft 506 kts 230°
2026-04-25 16:54 24.53648 -155.35367 36148 ft 507 kts 231°
2026-04-25 16:54 24.49031 -155.41226 36148 ft 507 kts 230°
2026-04-25 16:55 24.44441 -155.47050 36152 ft 507 kts 230°
2026-04-25 16:55 24.39829 -155.52897 36147 ft 506 kts 231°
2026-04-25 16:56 24.35217 -155.58735 36144 ft 506 kts 230°
2026-04-25 16:56 24.30597 -155.64576 36140 ft 507 kts 230°
2026-04-25 16:57 24.25991 -155.70391 36143 ft 508 kts 230°
2026-04-25 16:57 24.21357 -155.76237 36146 ft 508 kts 230°
2026-04-25 16:58 24.16726 -155.82069 36142 ft 507 kts 230°
2026-04-25 16:58 24.12090 -155.87901 36142 ft 506 kts 230°
2026-04-25 16:59 24.07464 -155.93715 36141 ft 507 kts 230°
2026-04-25 16:59 24.02822 -155.99542 36143 ft 508 kts 230°
2026-04-25 17:00 23.98201 -156.05335 36141 ft 508 kts 230°
2026-04-25 17:00 23.93555 -156.11152 36143 ft 507 kts 230°
2026-04-25 17:01 23.88917 -156.16952 36139 ft 506 kts 230°
2026-04-25 17:01 23.84271 -156.22754 36137 ft 506 kts 230°
2026-04-25 17:02 23.79629 -156.28546 36138 ft 507 kts 230°
2026-04-25 17:02 23.75007 -156.34306 36137 ft 508 kts 230°
2026-04-25 17:03 23.70353 -156.40100 36134 ft 506 kts 230°
2026-04-25 17:03 23.65720 -156.45860 36135 ft 504 kts 230°
2026-04-25 17:04 23.61092 -156.51608 36129 ft 504 kts 230°
2026-04-25 17:04 23.56461 -156.57351 36125 ft 504 kts 230°
2026-04-25 17:05 23.51814 -156.63109 36130 ft 507 kts 230°
2026-04-25 17:05 23.44849 -156.71726 36129 ft 507 kts 230°
2026-04-25 17:06 23.40187 -156.77485 36129 ft 507 kts 230°
2026-04-25 17:06 23.36304 -156.82277 36129 ft 507 kts 230°
2026-04-25 17:07 23.31628 -156.88042 36127 ft 507 kts 230°
2026-04-25 17:07 23.26944 -156.93808 36132 ft 508 kts 230°
2026-04-25 17:08 23.22251 -156.99580 36126 ft 507 kts 230°
2026-04-25 17:08 23.17609 -157.05284 36129 ft 506 kts 230°
2026-04-25 17:09 23.12941 -157.11013 36129 ft 506 kts 230°
2026-04-25 17:09 23.08266 -157.16743 36130 ft 506 kts 230°
2026-04-25 17:10 23.03384 -157.22273 36122 ft 507 kts 225°
2026-04-25 17:10 22.98289 -157.27584 36131 ft 508 kts 225°
2026-04-25 17:11 22.93212 -157.32906 36123 ft 507 kts 225°
2026-04-25 17:11 22.88207 -157.38230 36125 ft 506 kts 226°
2026-04-25 17:12 22.83189 -157.43599 36125 ft 507 kts 226°
2026-04-25 17:12 22.78169 -157.48969 36127 ft 507 kts 226°
2026-04-25 17:13 22.73995 -157.53425 36117 ft 507 kts 226°
2026-04-25 17:13 22.68147 -157.59658 36123 ft 506 kts 226°
2026-04-25 17:14 22.63134 -157.64995 36125 ft 506 kts 226°
2026-04-25 17:14 22.58114 -157.70335 36123 ft 506 kts 226°
2026-04-25 17:15 22.53087 -157.75676 36121 ft 506 kts 226°
2026-04-25 17:15 22.48066 -157.81006 36119 ft 506 kts 226°
2026-04-25 17:16 22.43052 -157.86320 36118 ft 502 kts 226°
2026-04-25 17:16 22.38077 -157.91588 36116 ft 500 kts 226°
2026-04-25 17:17 22.33138 -157.96811 36118 ft 500 kts 226°
2026-04-25 17:17 22.28166 -158.02067 36122 ft 500 kts 226°
2026-04-25 17:18 22.23194 -158.07317 36113 ft 500 kts 226°
2026-04-25 17:18 22.18219 -158.12563 36110 ft 498 kts 226°
2026-04-25 17:19 22.13274 -158.17770 36114 ft 496 kts 226°
2026-04-25 17:19 22.08337 -158.22968 36115 ft 497 kts 226°
2026-04-25 17:20 22.03378 -158.28182 36108 ft 498 kts 226°
2026-04-25 17:20 21.98413 -158.33393 36115 ft 498 kts 226°
2026-04-25 17:21 21.93450 -158.38601 36102 ft 498 kts 226°
2026-04-25 17:21 21.88532 -158.43755 36101 ft 495 kts 226°
2026-04-25 17:22 21.84397 -158.48085 36103 ft 494 kts 226°
2026-04-25 17:22 21.78657 -158.54091 36104 ft 494 kts 227°
2026-04-25 17:23 21.73704 -158.59266 36099 ft 497 kts 226°
2026-04-25 17:23 21.68762 -158.64422 36100 ft 497 kts 226°
2026-04-25 17:24 21.63808 -158.69588 36105 ft 495 kts 226°
2026-04-25 17:24 21.58864 -158.74738 36102 ft 493 kts 226°
2026-04-25 17:25 21.53938 -158.79867 36098 ft 493 kts 226°
2026-04-25 17:25 21.49003 -158.84998 36104 ft 494 kts 226°
2026-04-25 17:26 21.44049 -158.90144 36109 ft 495 kts 226°
2026-04-25 17:26 21.39082 -158.95297 36106 ft 496 kts 226°
2026-04-25 17:27 21.34170 -159.00386 36085 ft 493 kts 226°
2026-04-25 17:27 21.30873 -159.03801 36103 ft 492 kts 226°
2026-04-25 17:28 21.24308 -159.10596 36098 ft 492 kts 226°
2026-04-25 17:28 21.19368 -159.15689 36087 ft 493 kts 225°
2026-04-25 17:29 21.14352 -159.20702 36099 ft 493 kts 225°
2026-04-25 17:29 21.09308 -159.25700 36095 ft 493 kts 225°
2026-04-25 17:30 21.04325 -159.30653 36096 ft 492 kts 225°
2026-04-25 17:30 20.99314 -159.35645 36094 ft 491 kts 225°
2026-04-25 17:31 20.94313 -159.40627 36096 ft 491 kts 225°
2026-04-25 17:31 20.89302 -159.45615 36091 ft 491 kts 225°
2026-04-25 17:32 20.84292 -159.50596 36094 ft 491 kts 225°
2026-04-25 17:32 20.79282 -159.55572 36088 ft 492 kts 225°
2026-04-25 17:33 20.74262 -159.60553 36088 ft 493 kts 225°
2026-04-25 17:33 20.69236 -159.65535 36089 ft 493 kts 225°
2026-04-25 17:34 20.64205 -159.70517 36088 ft 493 kts 225°
2026-04-25 17:34 20.59205 -159.75465 36088 ft 493 kts 225°
2026-04-25 17:35 20.54178 -159.80433 36088 ft 491 kts 225°
2026-04-25 17:35 20.49168 -159.85382 36089 ft 490 kts 225°
2026-04-25 17:36 20.44157 -159.90325 36086 ft 491 kts 225°
2026-04-25 17:36 20.39134 -159.95277 36086 ft 491 kts 225°
2026-04-25 17:37 20.34110 -160.00225 36086 ft 491 kts 225°
2026-04-25 17:37 20.29090 -160.05164 36080 ft 491 kts 225°
2026-04-25 17:38 20.25767 -160.08430 36085 ft 489 kts 225°
2026-04-25 17:38 20.19110 -160.14969 36086 ft 488 kts 225°
2026-04-25 17:39 20.14120 -160.19866 36083 ft 488 kts 225°
2026-04-25 17:39 20.09121 -160.24767 36081 ft 488 kts 225°
2026-04-25 17:40 20.04117 -160.29668 36086 ft 489 kts 225°
2026-04-25 17:40 19.99109 -160.34568 36083 ft 488 kts 226°
2026-04-25 17:41 19.94131 -160.39434 36086 ft 485 kts 226°
2026-04-25 17:41 19.89198 -160.44254 36081 ft 485 kts 226°
2026-04-25 17:42 19.84230 -160.49103 36081 ft 484 kts 226°
2026-04-25 17:42 19.79263 -160.53947 36079 ft 484 kts 226°
2026-04-25 17:43 19.74296 -160.58785 36076 ft 485 kts 226°
2026-04-25 17:43 19.69323 -160.63625 36079 ft 484 kts 226°
2026-04-25 17:44 19.64373 -160.68437 36075 ft 482 kts 226°
2026-04-25 17:44 19.59430 -160.73240 36075 ft 482 kts 226°
2026-04-25 17:45 19.56129 -160.76445 36078 ft 482 kts 226°
2026-04-25 17:45 19.49544 -160.82834 36075 ft 482 kts 226°
2026-04-25 17:46 19.44599 -160.87626 36075 ft 482 kts 226°
2026-04-25 17:46 19.39681 -160.92387 36074 ft 480 kts 226°
2026-04-25 17:47 19.34751 -160.97155 36078 ft 479 kts 226°
2026-04-25 17:47 19.29828 -161.01915 36072 ft 479 kts 226°
2026-04-25 17:48 19.22442 -161.09047 36070 ft 479 kts 226°
2026-04-25 17:49 19.17516 -161.13798 36072 ft 479 kts 226°
2026-04-25 17:49 19.12592 -161.18543 36073 ft 478 kts 227°
2026-04-25 17:50 19.07706 -161.23247 36068 ft 477 kts 227°
2026-04-25 17:50 19.02800 -161.27968 36064 ft 477 kts 227°
2026-04-25 17:51 18.97892 -161.32686 36069 ft 477 kts 227°
2026-04-25 17:51 18.92980 -161.37405 36070 ft 477 kts 226°
2026-04-25 17:52 18.88893 -161.41327 36070 ft 477 kts 226°
2026-04-25 17:52 18.83182 -161.46805 36060 ft 476 kts 227°
2026-04-25 17:53 18.78299 -161.51518 36065 ft 475 kts 227°
2026-04-25 17:53 18.74222 -161.55472 36069 ft 475 kts 227°
2026-04-25 17:54 18.69359 -161.60185 36062 ft 475 kts 227°
2026-04-25 17:54 18.64484 -161.64900 36066 ft 475 kts 227°
2026-04-25 17:55 18.59639 -161.69579 36053 ft 475 kts 227°
2026-04-25 17:55 18.54757 -161.74290 36039 ft 475 kts 227°
2026-04-25 17:56 18.49877 -161.78995 36056 ft 474 kts 227°
2026-04-25 17:56 18.45009 -161.83684 36059 ft 474 kts 227°
2026-04-25 17:57 18.40142 -161.88370 36062 ft 474 kts 227°
2026-04-25 17:57 18.35266 -161.93061 36073 ft 474 kts 227°
2026-04-25 17:58 18.30392 -161.97746 36061 ft 475 kts 227°
2026-04-25 17:58 18.25545 -162.02400 36061 ft 475 kts 227°
2026-04-25 17:59 18.20666 -162.07082 36056 ft 474 kts 227°
2026-04-25 17:59 18.15795 -162.11752 36059 ft 473 kts 227°
2026-04-25 18:00 18.10929 -162.16415 36058 ft 473 kts 227°
2026-04-25 18:00 18.06056 -162.21080 36056 ft 473 kts 227°
2026-04-25 18:01 18.01186 -162.25739 36059 ft 473 kts 227°
2026-04-25 18:01 17.96308 -162.30402 36053 ft 474 kts 227°
2026-04-25 18:02 17.91460 -162.35032 36056 ft 474 kts 227°
2026-04-25 18:02 17.86573 -162.39696 36055 ft 474 kts 227°
2026-04-25 18:03 17.81690 -162.44352 36049 ft 474 kts 227°
2026-04-25 18:03 17.76803 -162.49009 36057 ft 474 kts 227°
2026-04-25 18:04 17.71917 -162.53662 36062 ft 474 kts 227°
2026-04-25 18:04 17.67063 -162.58280 36055 ft 474 kts 227°
2026-04-25 18:05 17.62173 -162.62929 36045 ft 474 kts 227°
2026-04-25 18:05 17.57309 -162.67586 36054 ft 473 kts 228°
2026-04-25 18:06 17.52536 -162.72322 36054 ft 473 kts 228°
2026-04-25 18:06 17.47774 -162.77073 36049 ft 473 kts 228°
2026-04-25 18:07 17.43000 -162.81808 36048 ft 473 kts 228°
2026-04-25 18:07 17.38213 -162.86538 36047 ft 473 kts 228°
2026-04-25 18:08 17.33453 -162.91233 36037 ft 473 kts 228°
2026-04-25 18:08 17.28665 -162.95952 36048 ft 472 kts 228°
2026-04-25 18:09 17.23877 -163.00669 36048 ft 472 kts 228°
2026-04-25 18:09 17.19088 -163.05383 36053 ft 472 kts 228°
2026-04-25 18:10 17.14302 -163.10091 36048 ft 472 kts 228°
2026-04-25 18:10 17.09534 -163.14778 36046 ft 472 kts 228°
2026-04-25 18:11 17.04746 -163.19481 36048 ft 472 kts 228°
2026-04-25 18:11 16.99953 -163.24185 36047 ft 472 kts 227°
2026-04-25 18:12 16.95172 -163.28874 36046 ft 471 kts 227°
2026-04-25 18:12 16.90389 -163.33562 36038 ft 471 kts 227°
2026-04-25 18:13 16.85599 -163.38254 36045 ft 471 kts 227°
2026-04-25 18:13 16.80844 -163.42907 36043 ft 471 kts 227°
2026-04-25 18:14 16.73660 -163.49931 36033 ft 471 kts 227°
2026-04-25 18:14 16.68871 -163.54610 36045 ft 471 kts 227°
2026-04-25 18:15 16.64086 -163.59281 36035 ft 471 kts 227°
2026-04-25 18:15 16.59329 -163.63921 36035 ft 471 kts 227°
2026-04-25 18:16 16.54542 -163.68588 36040 ft 471 kts 227°
2026-04-25 18:17 16.47348 -163.75595 36036 ft 471 kts 227°
2026-04-25 18:17 16.42551 -163.80262 36042 ft 471 kts 227°
2026-04-25 18:18 16.37754 -163.84926 36031 ft 471 kts 227°
2026-04-25 18:18 16.32991 -163.89554 36030 ft 471 kts 227°
2026-04-25 18:19 16.28191 -163.94215 36033 ft 471 kts 227°
2026-04-25 18:19 16.23382 -163.98881 36031 ft 471 kts 227°
2026-04-25 18:20 16.18582 -164.03537 36028 ft 472 kts 227°
2026-04-25 18:20 16.13807 -164.08164 36029 ft 472 kts 227°
2026-04-25 18:21 16.08998 -164.12820 36014 ft 472 kts 227°
2026-04-25 18:21 16.04192 -164.17470 36028 ft 472 kts 227°
2026-04-25 18:22 15.99383 -164.22120 36025 ft 472 kts 227°
2026-04-25 18:22 15.94603 -164.26739 36029 ft 472 kts 227°
2026-04-25 18:23 15.89794 -164.31383 36025 ft 472 kts 227°
2026-04-25 18:23 15.84985 -164.36023 36025 ft 472 kts 227°
2026-04-25 18:24 15.80174 -164.40663 36024 ft 472 kts 227°
2026-04-25 18:24 15.75353 -164.45309 36025 ft 473 kts 227°
2026-04-25 18:25 15.70533 -164.49951 36024 ft 472 kts 227°
2026-04-25 18:25 15.65708 -164.54594 36024 ft 473 kts 227°
2026-04-25 18:26 15.60912 -164.59206 36021 ft 473 kts 227°
2026-04-25 18:26 15.56076 -164.63854 36020 ft 473 kts 227°
2026-04-25 18:27 15.51252 -164.68487 36016 ft 473 kts 227°
2026-04-25 18:27 15.46422 -164.73123 36019 ft 473 kts 227°
2026-04-25 18:28 15.41590 -164.77757 36017 ft 472 kts 227°
2026-04-25 18:28 15.36793 -164.82355 36015 ft 472 kts 227°
2026-04-25 18:29 15.29543 -164.89299 36015 ft 472 kts 227°
2026-04-25 18:30 15.19888 -164.98535 36017 ft 472 kts 227°
2026-04-25 18:30 15.15059 -165.03150 36017 ft 472 kts 227°
2026-04-25 18:31 15.10251 -165.07742 36009 ft 473 kts 227°
2026-04-25 18:31 15.05407 -165.12366 36012 ft 473 kts 227°
2026-04-25 18:32 15.00567 -165.16982 36012 ft 473 kts 227°
2026-04-25 18:32 14.95720 -165.21602 36012 ft 473 kts 227°
2026-04-25 18:33 14.90879 -165.26213 36013 ft 473 kts 227°
2026-04-25 18:33 14.86072 -165.30790 36009 ft 473 kts 227°
2026-04-25 18:34 14.81227 -165.35399 36009 ft 473 kts 226°
2026-04-25 18:34 14.76387 -165.40001 36010 ft 473 kts 226°
2026-04-25 18:35 14.71540 -165.44607 36007 ft 473 kts 226°
2026-04-25 18:35 14.66690 -165.49212 36006 ft 473 kts 226°
2026-04-25 18:36 14.61842 -165.53813 36007 ft 473 kts 226°
2026-04-25 18:36 14.56984 -165.58420 36007 ft 474 kts 226°
2026-04-25 18:37 14.52124 -165.63026 36007 ft 474 kts 226°
2026-04-25 18:37 14.47305 -165.67591 36003 ft 473 kts 226°
2026-04-25 18:38 14.42449 -165.72188 36007 ft 473 kts 226°
2026-04-25 18:38 14.37595 -165.76779 36007 ft 473 kts 226°
2026-04-25 18:39 14.32742 -165.81368 36001 ft 473 kts 226°
2026-04-25 18:39 14.27885 -165.85958 36002 ft 474 kts 226°
2026-04-25 18:40 14.23020 -165.90551 36003 ft 474 kts 226°
2026-04-25 18:40 14.18985 -165.94359 36005 ft 473 kts 226°
2026-04-25 18:41 14.14125 -165.98943 35999 ft 473 kts 226°
2026-04-25 18:41 14.08472 -166.04271 36002 ft 473 kts 226°
2026-04-25 18:42 14.05225 -166.07331 36001 ft 473 kts 226°
2026-04-25 18:42 13.99550 -166.12674 36002 ft 473 kts 226°
2026-04-25 18:43 13.94725 -166.17215 36001 ft 473 kts 226°
2026-04-25 18:43 13.89863 -166.21788 36179 ft 472 kts 226°
2026-04-25 18:44 13.87414 -166.24029 36469 ft 470 kts 225°
2026-04-25 18:44 13.84910 -166.26200 36708 ft 469 kts 224°
2026-04-25 18:44 13.82392 -166.28332 36876 ft 469 kts 224°
2026-04-25 18:44 13.79867 -166.30456 37131 ft 466 kts 224°
2026-04-25 18:45 13.77360 -166.32574 37342 ft 465 kts 224°
2026-04-25 18:45 13.74869 -166.34693 37489 ft 464 kts 224°
2026-04-25 18:45 13.72382 -166.36819 37634 ft 464 kts 224°
2026-04-25 18:45 13.69906 -166.38943 37774 ft 464 kts 224°
2026-04-25 18:46 13.67428 -166.41073 37910 ft 463 kts 224°
2026-04-25 18:46 13.64980 -166.43179 37994 ft 464 kts 224°
2026-04-25 18:46 13.59999 -166.47463 37996 ft 468 kts 224°
2026-04-25 18:47 13.54994 -166.51760 37992 ft 469 kts 224°
2026-04-25 18:47 13.49970 -166.56070 37995 ft 469 kts 224°
2026-04-25 18:48 13.44987 -166.60340 37991 ft 468 kts 224°
2026-04-25 18:48 13.39992 -166.64620 37993 ft 467 kts 224°
2026-04-25 18:49 13.34997 -166.68898 37995 ft 467 kts 224°
2026-04-25 18:49 13.29999 -166.73177 37996 ft 467 kts 224°
2026-04-25 18:50 13.25003 -166.77452 37989 ft 467 kts 224°
2026-04-25 18:50 13.20004 -166.81726 37992 ft 467 kts 224°
2026-04-25 18:51 13.15848 -166.85277 37991 ft 467 kts 224°
2026-04-25 18:51 13.10038 -166.90239 37988 ft 467 kts 225°
2026-04-25 18:52 13.05043 -166.94503 37987 ft 467 kts 225°
2026-04-25 18:52 13.00042 -166.98770 37985 ft 467 kts 224°
2026-04-25 18:53 12.95078 -167.03003 37985 ft 467 kts 224°
2026-04-25 18:53 12.90071 -167.07270 37985 ft 467 kts 224°
2026-04-25 18:54 12.82569 -167.13659 37982 ft 467 kts 224°
2026-04-25 18:55 12.77574 -167.17910 37986 ft 465 kts 224°
2026-04-25 18:55 12.72628 -167.22116 37979 ft 465 kts 224°
2026-04-25 18:56 12.67643 -167.26356 37977 ft 466 kts 224°
2026-04-25 18:56 12.62650 -167.30599 37976 ft 466 kts 224°
2026-04-25 18:57 12.57659 -167.34838 37976 ft 466 kts 224°
2026-04-25 18:57 12.52663 -167.39078 37976 ft 466 kts 224°
2026-04-25 18:58 12.47663 -167.43321 37979 ft 466 kts 224°
2026-04-25 18:58 12.40209 -167.49639 37976 ft 465 kts 224°
2026-04-25 18:59 12.30243 -167.58083 37974 ft 465 kts 224°
2026-04-25 19:00 12.22756 -167.64420 37977 ft 465 kts 224°
2026-04-25 19:01 12.15306 -167.70720 37971 ft 465 kts 224°
2026-04-25 19:01 12.10315 -167.74939 37972 ft 466 kts 224°
2026-04-25 19:02 12.02822 -167.81268 37966 ft 466 kts 224°
2026-04-25 19:03 11.96979 -167.86200 37965 ft 466 kts 224°
2026-04-25 19:03 11.90324 -167.91814 37966 ft 466 kts 224°
2026-04-25 19:04 11.82830 -167.98131 37966 ft 466 kts 224°
2026-04-25 19:05 11.72865 -168.06525 37963 ft 466 kts 224°
2026-04-25 19:06 11.67862 -168.10735 37967 ft 466 kts 224°
2026-04-25 19:06 11.60352 -168.17052 37963 ft 467 kts 224°
2026-04-25 19:07 11.52835 -168.23371 37960 ft 466 kts 224°
2026-04-25 19:08 11.45321 -168.29681 37958 ft 466 kts 224°
2026-04-25 19:09 11.36140 -168.37387 37952 ft 467 kts 224°
2026-04-25 19:10 11.27772 -168.44404 37955 ft 466 kts 224°
2026-04-25 19:10 11.22792 -168.48578 37955 ft 466 kts 224°
2026-04-25 19:11 11.17782 -168.52774 37953 ft 466 kts 224°
2026-04-25 19:11 11.12770 -168.56970 37952 ft 466 kts 224°
2026-04-25 19:12 11.07752 -168.61171 37946 ft 466 kts 224°
2026-04-25 19:12 11.02758 -168.65349 37949 ft 467 kts 224°
2026-04-25 19:13 10.97742 -168.69542 37949 ft 467 kts 224°
2026-04-25 19:13 10.92722 -168.73736 37949 ft 467 kts 224°
2026-04-25 19:14 10.87706 -168.77927 37950 ft 467 kts 224°
2026-04-25 19:14 10.82682 -168.82122 37949 ft 467 kts 224°
2026-04-25 19:15 10.77657 -168.86317 37949 ft 467 kts 224°
2026-04-25 19:15 10.72631 -168.90510 37945 ft 467 kts 223°
2026-04-25 19:16 10.67600 -168.94707 37947 ft 468 kts 223°
2026-04-25 19:16 10.62563 -168.98904 37947 ft 468 kts 223°
2026-04-25 19:17 10.57551 -169.03079 37946 ft 468 kts 223°
2026-04-25 19:17 10.52509 -169.07278 37941 ft 468 kts 223°
2026-04-25 19:18 10.47468 -169.11474 37942 ft 468 kts 223°
2026-04-25 19:18 10.42419 -169.15675 37941 ft 468 kts 223°
2026-04-25 19:19 10.37375 -169.19871 37952 ft 469 kts 223°
2026-04-25 19:19 10.32322 -169.24073 37936 ft 470 kts 223°
2026-04-25 19:20 10.27291 -169.28253 37936 ft 470 kts 223°
2026-04-25 19:20 10.22231 -169.32455 37929 ft 470 kts 223°
2026-04-25 19:21 10.17163 -169.36662 37935 ft 470 kts 223°
2026-04-25 19:21 10.09567 -169.42966 37933 ft 470 kts 223°
2026-04-25 19:22 10.04501 -169.47168 37926 ft 470 kts 223°
2026-04-25 19:23 9.96923 -169.53451 37938 ft 471 kts 223°
2026-04-25 19:23 9.89288 -169.59775 37935 ft 472 kts 223°
2026-04-25 19:24 9.84206 -169.63988 37938 ft 471 kts 223°
2026-04-25 19:25 9.74805 -169.73119 37933 ft 469 kts 228°
2026-04-25 19:25 9.70152 -169.77750 37932 ft 469 kts 227°
2026-04-25 19:26 9.65443 -169.82353 37928 ft 470 kts 226°
2026-04-25 19:26 9.60712 -169.86943 37924 ft 471 kts 226°
2026-04-25 19:27 9.57576 -169.89984 37930 ft 471 kts 226°
2026-04-25 19:27 9.51239 -169.96130 37927 ft 471 kts 226°
2026-04-25 19:28 9.46536 -170.00692 37930 ft 471 kts 226°
2026-04-25 19:28 9.41799 -170.05285 37921 ft 471 kts 226°
2026-04-25 19:29 9.37069 -170.09871 37929 ft 471 kts 226°
2026-04-25 19:29 9.33131 -170.13687 37928 ft 471 kts 226°
2026-04-25 19:30 9.28390 -170.18279 37929 ft 471 kts 226°
2026-04-25 19:30 9.23658 -170.22861 37926 ft 471 kts 226°
2026-04-25 19:31 9.18919 -170.27447 37923 ft 471 kts 226°
2026-04-25 19:31 9.14185 -170.32027 37924 ft 471 kts 226°
2026-04-25 19:32 9.09479 -170.36578 37921 ft 471 kts 226°
2026-04-25 19:32 9.05509 -170.40416 37922 ft 471 kts 226°
2026-04-25 19:33 8.99999 -170.45740 37913 ft 471 kts 226°
2026-04-25 19:33 8.95266 -170.50313 37920 ft 471 kts 226°
2026-04-25 19:34 8.90534 -170.54883 37910 ft 470 kts 226°
2026-04-25 19:34 8.85800 -170.59452 37916 ft 470 kts 226°
2026-04-25 19:35 8.81059 -170.64026 37923 ft 470 kts 226°
2026-04-25 19:35 8.76329 -170.68588 37925 ft 470 kts 226°
2026-04-25 19:36 8.71627 -170.73122 37920 ft 470 kts 226°
2026-04-25 19:36 8.66894 -170.77684 37923 ft 470 kts 226°
2026-04-25 19:37 8.62163 -170.82242 37919 ft 470 kts 226°
2026-04-25 19:37 8.57429 -170.86803 37918 ft 470 kts 225°
2026-04-25 19:38 8.52704 -170.91351 37908 ft 469 kts 225°
2026-04-25 19:38 8.47979 -170.95899 37916 ft 469 kts 225°
2026-04-25 19:39 8.43252 -171.00446 37920 ft 469 kts 225°
2026-04-25 19:39 8.38522 -171.04995 37920 ft 469 kts 225°
2026-04-25 19:40 8.33796 -171.09538 37917 ft 469 kts 225°
2026-04-25 19:40 8.29102 -171.14049 37916 ft 469 kts 225°
2026-04-25 19:41 8.24374 -171.18591 37907 ft 469 kts 225°
2026-04-25 19:41 8.20427 -171.22383 37921 ft 472 kts 225°
2026-04-25 19:42 8.14853 -171.27735 37916 ft 473 kts 225°
2026-04-25 19:42 8.10075 -171.32320 37914 ft 473 kts 225°
2026-04-25 19:43 8.05301 -171.36899 37914 ft 473 kts 225°
2026-04-25 19:43 8.00565 -171.41442 37916 ft 473 kts 225°
2026-04-25 19:44 7.95790 -171.46020 37919 ft 473 kts 225°
2026-04-25 19:44 7.91018 -171.50593 37916 ft 473 kts 225°
2026-04-25 19:45 7.86247 -171.55165 37917 ft 473 kts 225°
2026-04-25 19:45 7.81476 -171.59734 37912 ft 473 kts 225°
2026-04-25 19:46 7.76725 -171.64283 37914 ft 473 kts 225°
2026-04-25 19:46 7.71924 -171.68878 37912 ft 472 kts 225°
2026-04-25 19:47 7.67190 -171.73408 37913 ft 472 kts 225°
2026-04-25 19:47 7.62428 -171.77963 37913 ft 472 kts 225°
2026-04-25 19:48 7.57664 -171.82518 37913 ft 472 kts 225°
2026-04-25 19:48 7.52904 -171.87068 37917 ft 472 kts 225°
2026-04-25 19:49 7.48934 -171.90862 37911 ft 473 kts 225°
2026-04-25 19:49 7.43343 -171.96204 37914 ft 474 kts 225°
2026-04-25 19:50 7.36151 -172.03071 37908 ft 474 kts 225°
2026-04-25 19:51 7.31364 -172.07641 37912 ft 474 kts 225°
2026-04-25 19:51 7.26572 -172.12214 37907 ft 474 kts 225°
2026-04-25 19:52 7.21779 -172.16786 37909 ft 474 kts 225°
2026-04-25 19:52 7.17014 -172.21331 37908 ft 474 kts 225°
2026-04-25 19:53 7.12225 -172.25895 37905 ft 473 kts 225°
2026-04-25 19:53 7.07450 -172.30447 37906 ft 472 kts 225°
2026-04-25 19:54 7.02684 -172.34988 37907 ft 472 kts 225°
2026-04-25 19:54 6.97908 -172.39538 37912 ft 472 kts 225°
2026-04-25 19:55 6.93138 -172.44080 37905 ft 472 kts 225°
2026-04-25 19:55 6.88397 -172.48594 37904 ft 472 kts 225°
2026-04-25 19:56 6.83622 -172.53138 37903 ft 472 kts 225°
2026-04-25 19:56 6.78849 -172.57679 37900 ft 472 kts 225°
2026-04-25 19:57 6.74074 -172.62222 37901 ft 472 kts 225°
2026-04-25 19:57 6.69300 -172.66761 37901 ft 472 kts 225°
2026-04-25 19:58 6.64540 -172.71285 37905 ft 473 kts 225°
2026-04-25 19:58 6.59756 -172.75831 37900 ft 473 kts 225°
2026-04-25 19:59 6.54975 -172.80372 37895 ft 472 kts 225°
2026-04-25 19:59 6.50201 -172.84906 37896 ft 472 kts 225°
2026-04-25 20:00 6.45425 -172.89442 37909 ft 472 kts 225°
2026-04-25 20:00 6.40655 -172.93972 37886 ft 472 kts 225°
2026-04-25 20:01 6.33515 -173.00747 37905 ft 473 kts 225°
2026-04-25 20:01 6.28731 -173.05286 37907 ft 473 kts 225°
2026-04-25 20:02 6.23943 -173.09827 37887 ft 473 kts 225°
2026-04-25 20:02 6.19156 -173.14365 37886 ft 473 kts 225°
2026-04-25 20:03 6.14370 -173.18901 37903 ft 472 kts 226°
2026-04-25 20:03 6.09581 -173.23440 37900 ft 472 kts 226°
2026-04-25 20:04 6.04826 -173.27946 37901 ft 472 kts 226°
2026-04-25 20:04 6.00030 -173.32489 37892 ft 474 kts 225°
2026-04-25 20:05 5.95227 -173.37037 37892 ft 474 kts 225°
2026-04-25 20:05 5.90424 -173.41583 37894 ft 474 kts 225°
2026-04-25 20:06 5.85645 -173.46106 37894 ft 474 kts 225°
2026-04-25 20:06 5.80832 -173.50660 37891 ft 474 kts 225°
2026-04-25 20:07 5.76022 -173.55210 37880 ft 474 kts 226°
2026-04-25 20:07 5.71263 -173.59711 37898 ft 472 kts 226°
2026-04-25 20:08 5.66478 -173.64236 37876 ft 472 kts 225°
2026-04-25 20:08 5.61665 -173.68787 37891 ft 478 kts 225°
2026-04-25 20:09 5.56808 -173.73378 37892 ft 479 kts 225°
2026-04-25 20:09 5.51959 -173.77967 37893 ft 479 kts 226°
2026-04-25 20:10 5.47217 -173.82657 37894 ft 478 kts 227°
2026-04-25 20:10 5.42516 -173.87388 37891 ft 478 kts 227°
2026-04-25 20:11 5.37801 -173.92110 37890 ft 478 kts 227°
2026-04-25 20:11 5.33120 -173.96770 37891 ft 475 kts 227°
2026-04-25 20:12 5.28423 -174.01439 37896 ft 476 kts 226°
2026-04-25 20:12 5.25262 -174.04581 37893 ft 480 kts 226°
2026-04-25 20:13 5.18901 -174.10903 37890 ft 484 kts 226°
2026-04-25 20:13 5.14120 -174.15652 37875 ft 483 kts 226°
2026-04-25 20:14 5.09340 -174.20399 37889 ft 483 kts 226°
2026-04-25 20:14 5.04563 -174.25143 37887 ft 483 kts 226°
2026-04-25 20:15 4.99811 -174.29861 37893 ft 483 kts 227°
2026-04-25 20:15 4.95058 -174.34579 37874 ft 479 kts 227°
2026-04-25 20:16 4.90321 -174.39281 37877 ft 480 kts 226°
2026-04-25 20:16 4.85542 -174.44025 37873 ft 486 kts 226°
2026-04-25 20:17 4.80728 -174.48800 37887 ft 485 kts 226°
2026-04-25 20:17 4.76741 -174.52754 37870 ft 485 kts 226°
2026-04-25 20:18 4.71156 -174.58292 37874 ft 485 kts 227°
2026-04-25 20:18 4.66350 -174.63057 37871 ft 485 kts 226°
2026-04-25 20:19 4.62361 -174.67011 37885 ft 485 kts 226°
2026-04-25 20:19 4.57560 -174.71769 37882 ft 485 kts 226°
2026-04-25 20:20 4.52765 -174.76519 37892 ft 485 kts 226°
2026-04-25 20:20 4.47957 -174.81283 37892 ft 485 kts 226°
2026-04-25 20:21 4.43149 -174.86046 37877 ft 486 kts 226°
2026-04-25 20:21 4.38367 -174.90781 37876 ft 486 kts 226°
2026-04-25 20:22 4.34341 -174.94768 37892 ft 486 kts 226°
2026-04-25 20:22 4.28759 -175.00294 37887 ft 486 kts 226°
2026-04-25 20:23 4.23945 -175.05058 37884 ft 486 kts 227°
2026-04-25 20:23 4.19123 -175.09830 37872 ft 487 kts 227°
2026-04-25 20:24 4.14293 -175.14609 37887 ft 487 kts 226°
2026-04-25 20:24 4.09500 -175.19350 37886 ft 487 kts 227°
2026-04-25 20:25 4.04674 -175.24123 37884 ft 487 kts 226°
2026-04-25 20:25 3.99839 -175.28904 37862 ft 488 kts 226°
2026-04-25 20:26 3.95014 -175.33674 37884 ft 487 kts 226°
2026-04-25 20:26 3.90182 -175.38450 37886 ft 487 kts 227°
2026-04-25 20:27 3.85355 -175.43220 37879 ft 487 kts 227°
2026-04-25 20:27 3.80528 -175.47991 37878 ft 488 kts 226°
2026-04-25 20:28 3.75724 -175.52737 37878 ft 487 kts 226°
2026-04-25 20:28 3.70898 -175.57504 37878 ft 487 kts 226°
2026-04-25 20:29 3.66067 -175.62275 37860 ft 487 kts 226°
2026-04-25 20:29 3.61235 -175.67047 37874 ft 487 kts 226°
2026-04-25 20:30 3.56405 -175.71816 37878 ft 487 kts 227°
2026-04-25 20:30 3.51608 -175.76552 37876 ft 487 kts 226°
2026-04-25 20:31 3.46759 -175.81338 37876 ft 487 kts 226°
2026-04-25 20:31 3.41927 -175.86106 37875 ft 487 kts 226°
2026-04-25 20:32 3.37134 -175.90836 37878 ft 486 kts 226°
2026-04-25 20:32 3.32319 -175.95587 37880 ft 486 kts 226°
2026-04-25 20:33 3.27501 -176.00340 37880 ft 486 kts 226°
2026-04-25 20:33 3.23503 -176.04284 37878 ft 486 kts 226°
2026-04-25 20:34 3.17876 -176.09833 37872 ft 486 kts 226°
2026-04-25 20:34 3.13056 -176.14586 37873 ft 486 kts 226°
2026-04-25 20:35 3.08272 -176.19302 37854 ft 486 kts 227°
2026-04-25 20:35 3.03457 -176.24048 37872 ft 486 kts 227°
2026-04-25 20:36 2.98624 -176.28812 37875 ft 487 kts 227°
2026-04-25 20:36 2.93797 -176.33570 37876 ft 488 kts 227°
2026-04-25 20:37 2.88961 -176.38335 37874 ft 488 kts 227°
2026-04-25 20:37 2.84124 -176.43101 37875 ft 488 kts 227°
2026-04-25 20:38 2.79288 -176.47865 37873 ft 488 kts 227°
2026-04-25 20:38 2.74454 -176.52627 37870 ft 488 kts 227°
2026-04-25 20:39 2.69618 -176.57389 37870 ft 488 kts 227°
2026-04-25 20:39 2.65602 -176.61344 37871 ft 487 kts 228°
2026-04-25 20:40 2.59971 -176.66889 37869 ft 486 kts 228°
2026-04-25 20:40 2.55190 -176.71597 37869 ft 485 kts 228°
2026-04-25 20:41 2.50372 -176.76340 37867 ft 485 kts 228°
2026-04-25 20:41 2.45557 -176.81080 37867 ft 485 kts 228°
2026-04-25 20:42 2.40744 -176.85817 37866 ft 485 kts 228°
2026-04-25 20:42 2.35927 -176.90558 37867 ft 485 kts 228°
2026-04-25 20:43 2.31112 -176.95297 37864 ft 485 kts 227°
2026-04-25 20:43 2.26330 -177.00002 37867 ft 485 kts 228°
2026-04-25 20:44 2.21521 -177.04732 37867 ft 484 kts 228°
2026-04-25 20:44 2.16714 -177.09462 37871 ft 484 kts 228°
2026-04-25 20:45 2.11912 -177.14185 37866 ft 484 kts 228°
2026-04-25 20:45 2.07109 -177.18909 37865 ft 484 kts 228°
2026-04-25 20:46 2.02297 -177.23642 37867 ft 484 kts 228°
2026-04-25 20:46 1.97491 -177.28368 37868 ft 484 kts 228°
2026-04-25 20:47 1.92715 -177.33065 37864 ft 484 kts 227°
2026-04-25 20:47 1.87906 -177.37795 37868 ft 484 kts 226°
2026-04-25 20:48 1.83111 -177.42507 37871 ft 483 kts 226°
2026-04-25 20:48 1.78318 -177.47218 37871 ft 483 kts 226°
2026-04-25 20:49 1.73520 -177.51934 37871 ft 483 kts 226°
2026-04-25 20:49 1.68722 -177.56651 37869 ft 483 kts 226°
2026-04-25 20:50 1.63931 -177.61359 37870 ft 483 kts 226°
2026-04-25 20:50 1.59134 -177.66074 37870 ft 483 kts 226°
2026-04-25 20:51 1.54372 -177.70754 37871 ft 483 kts 226°
2026-04-25 20:51 1.49582 -177.75462 37870 ft 482 kts 226°
2026-04-25 20:52 1.45601 -177.79374 37869 ft 482 kts 226°
2026-04-25 20:52 1.39982 -177.84841 37869 ft 482 kts 226°
2026-04-25 20:53 1.35161 -177.89509 37866 ft 482 kts 226°
2026-04-25 20:53 1.30378 -177.94147 37869 ft 482 kts 226°
2026-04-25 20:54 1.25564 -177.98822 37868 ft 482 kts 226°
2026-04-25 20:54 1.20759 -178.03489 37867 ft 482 kts 226°
2026-04-25 20:55 1.15945 -178.08165 37867 ft 482 kts 226°
2026-04-25 20:55 1.11135 -178.12837 37868 ft 482 kts 225°
2026-04-25 20:56 1.06326 -178.17506 37866 ft 482 kts 225°
2026-04-25 20:56 1.01517 -178.22176 37865 ft 482 kts 225°
2026-04-25 20:57 0.96703 -178.26849 37867 ft 482 kts 226°
2026-04-25 20:57 0.91923 -178.31491 37865 ft 482 kts 225°
2026-04-25 20:58 0.87118 -178.36156 37869 ft 482 kts 225°
2026-04-25 20:58 0.82312 -178.40822 37869 ft 482 kts 225°
2026-04-25 20:59 0.77504 -178.45490 37865 ft 482 kts 226°
2026-04-25 20:59 0.72699 -178.50156 37866 ft 481 kts 225°
2026-04-25 21:00 0.69487 -178.53273 37870 ft 481 kts 225°
2026-04-25 21:01 0.60705 -178.61798 37870 ft 481 kts 225°
2026-04-25 21:01 0.55901 -178.66461 37865 ft 481 kts 225°
2026-04-25 21:02 0.51103 -178.71119 37865 ft 481 kts 225°
2026-04-25 21:02 0.46304 -178.75777 37865 ft 481 kts 225°
2026-04-25 21:03 0.41503 -178.80437 37866 ft 481 kts 225°
2026-04-25 21:03 0.36733 -178.85067 37865 ft 481 kts 225°
2026-04-25 21:04 0.31934 -178.89725 37860 ft 481 kts 225°
2026-04-25 21:04 0.27133 -178.94385 37862 ft 481 kts 225°
2026-04-25 21:05 0.23137 -178.98264 37863 ft 481 kts 225°
2026-04-25 21:05 0.18334 -179.02926 37863 ft 481 kts 225°
2026-04-25 21:06 0.13531 -179.07587 37862 ft 481 kts 225°
2026-04-25 21:06 0.08728 -179.12248 37866 ft 481 kts 225°
2026-04-25 21:07 0.03927 -179.16908 37865 ft 481 kts 225°
2026-04-25 21:07 -0.00879 -179.21574 37866 ft 481 kts 225°
2026-04-25 21:08 -0.05662 -179.26216 37865 ft 482 kts 225°
2026-04-25 21:08 -0.10477 -179.30888 37867 ft 483 kts 225°
2026-04-25 21:09 -0.17697 -179.37896 37864 ft 482 kts 225°
2026-04-25 21:09 -0.22516 -179.42573 37863 ft 483 kts 225°
2026-04-25 21:10 -0.27330 -179.47246 37863 ft 483 kts 225°
2026-04-25 21:10 -0.32148 -179.51922 37863 ft 482 kts 225°
2026-04-25 21:11 -0.36966 -179.56598 37863 ft 482 kts 225°
2026-04-25 21:11 -0.41787 -179.61278 37862 ft 485 kts 224°
2026-04-25 21:12 -0.46607 -179.65957 37863 ft 487 kts 224°
2026-04-25 21:12 -0.50675 -179.69905 37861 ft 487 kts 224°
2026-04-25 21:13 -0.56317 -179.75381 37860 ft 486 kts 224°
2026-04-25 21:13 -0.61180 -179.80102 37862 ft 486 kts 224°
2026-04-25 21:14 -0.66034 -179.84814 37864 ft 487 kts 224°
2026-04-25 21:14 -0.70889 -179.89527 37863 ft 487 kts 224°
2026-04-25 21:15 -0.75751 -179.94247 37862 ft 487 kts 224°
2026-04-25 21:15 -0.80609 -179.98965 37866 ft 487 kts 224°
2026-04-25 21:16 -0.85474 179.96289 37860 ft 489 kts 224°
2026-04-25 21:16 -0.90299 179.91546 37856 ft 489 kts 224°
2026-04-25 21:17 -0.95157 179.86769 37861 ft 490 kts 224°
2026-04-25 21:17 -1.00015 179.81998 37859 ft 490 kts 224°
2026-04-25 21:18 -1.04875 179.77226 37854 ft 490 kts 224°
2026-04-25 21:18 -1.09739 179.72450 37859 ft 489 kts 224°
2026-04-25 21:19 -1.14596 179.67681 37863 ft 489 kts 224°
2026-04-25 21:19 -1.19413 179.62950 37859 ft 487 kts 224°
2026-04-25 21:20 -1.23429 179.59008 37860 ft 487 kts 224°
2026-04-25 21:20 -1.29091 179.53448 37863 ft 488 kts 224°
2026-04-25 21:21 -1.33935 179.48689 37864 ft 488 kts 224°
2026-04-25 21:21 -1.38743 179.43967 37861 ft 488 kts 224°
2026-04-25 21:22 -1.43589 179.39207 37863 ft 488 kts 224°
2026-04-25 21:22 -1.48438 179.34444 37860 ft 488 kts 224°
2026-04-25 21:23 -1.53280 179.29688 37866 ft 488 kts 224°
2026-04-25 21:23 -1.58114 179.24938 37862 ft 485 kts 224°
2026-04-25 21:24 -1.62900 179.20237 37858 ft 486 kts 224°
2026-04-25 21:24 -1.67721 179.15500 37859 ft 486 kts 224°
2026-04-25 21:25 -1.72550 179.10754 37862 ft 486 kts 224°
2026-04-25 21:25 -1.77381 179.06007 37862 ft 486 kts 224°
2026-04-25 21:26 -1.82206 179.01265 37860 ft 486 kts 224°
2026-04-25 21:26 -1.87029 178.96524 37863 ft 487 kts 224°
2026-04-25 21:27 -1.91865 178.91771 37865 ft 487 kts 224°
2026-04-25 21:27 -1.96656 178.87061 37862 ft 485 kts 224°
2026-04-25 21:28 -2.01458 178.82340 37862 ft 485 kts 224°
2026-04-25 21:28 -2.06270 178.77609 37861 ft 485 kts 224°
2026-04-25 21:29 -2.11088 178.72872 37861 ft 485 kts 224°
2026-04-25 21:29 -2.15909 178.68131 37860 ft 485 kts 224°
2026-04-25 21:30 -2.20724 178.63396 37861 ft 486 kts 224°
2026-04-25 21:30 -2.24729 178.59456 37863 ft 486 kts 224°
2026-04-25 21:31 -2.30334 178.53943 37863 ft 486 kts 224°
2026-04-25 21:31 -2.35150 178.49205 37862 ft 485 kts 224°
2026-04-25 21:32 -2.39967 178.44467 37860 ft 486 kts 224°
2026-04-25 21:32 -2.44803 178.39709 37861 ft 487 kts 224°
2026-04-25 21:33 -2.49607 178.34981 37859 ft 487 kts 224°
2026-04-25 21:33 -2.54443 178.30221 37864 ft 487 kts 224°
2026-04-25 21:34 -2.59280 178.25460 37863 ft 487 kts 224°
2026-04-25 21:34 -2.64109 178.20707 37864 ft 487 kts 224°
2026-04-25 21:35 -2.68910 178.15981 37864 ft 487 kts 224°
2026-04-25 21:35 -2.73724 178.11241 37857 ft 485 kts 224°
2026-04-25 21:36 -2.78538 178.06506 38199 ft 483 kts 225°
2026-04-25 21:36 -2.80936 178.04147 38339 ft 484 kts 225°
2026-04-25 21:36 -2.83330 178.01789 38601 ft 481 kts 225°
2026-04-25 21:37 -2.85717 177.99437 38714 ft 482 kts 225°
2026-04-25 21:37 -2.87298 177.97880 38825 ft 481 kts 225°
2026-04-25 21:37 -2.90475 177.94750 39013 ft 480 kts 225°
2026-04-25 21:37 -2.92857 177.92403 39118 ft 480 kts 225°
2026-04-25 21:38 -2.95203 177.90093 39269 ft 479 kts 225°
2026-04-25 21:38 -2.97585 177.87746 39347 ft 479 kts 225°
2026-04-25 21:38 -2.99959 177.85409 39526 ft 478 kts 225°
2026-04-25 21:38 -3.02326 177.83077 39607 ft 478 kts 225°
2026-04-25 21:39 -3.04699 177.80740 39751 ft 477 kts 225°
2026-04-25 21:39 -3.07063 177.78411 39846 ft 477 kts 225°
2026-04-25 21:39 -3.11807 177.73737 39858 ft 479 kts 225°
2026-04-25 21:40 -3.16562 177.69051 39857 ft 478 kts 225°
2026-04-25 21:40 -3.21279 177.64404 39860 ft 478 kts 225°
2026-04-25 21:41 -3.26020 177.59731 39858 ft 478 kts 225°
2026-04-25 21:41 -3.30761 177.55057 39859 ft 478 kts 225°
2026-04-25 21:42 -3.35504 177.50381 39860 ft 478 kts 225°
2026-04-25 21:42 -3.40241 177.45711 39859 ft 478 kts 225°
2026-04-25 21:43 -3.44977 177.41040 39859 ft 478 kts 225°
2026-04-25 21:43 -3.49693 177.36389 39859 ft 478 kts 225°
2026-04-25 21:44 -3.54429 177.31717 39857 ft 478 kts 225°
2026-04-25 21:45 -3.61528 177.24712 39859 ft 477 kts 225°
2026-04-25 21:45 -3.66256 177.20047 39861 ft 477 kts 225°
2026-04-25 21:46 -3.70985 177.15380 39859 ft 477 kts 225°
2026-04-25 21:46 -3.75712 177.10713 39860 ft 477 kts 225°
2026-04-25 21:47 -3.80442 177.06044 39861 ft 477 kts 225°
2026-04-25 21:47 -3.85147 177.01398 39862 ft 477 kts 225°
2026-04-25 21:48 -3.89875 176.96728 39856 ft 477 kts 225°
2026-04-25 21:48 -3.94602 176.92059 39856 ft 477 kts 225°
2026-04-25 21:49 -3.99320 176.87398 39855 ft 476 kts 225°
2026-04-25 21:49 -4.04034 176.82739 39856 ft 476 kts 225°
2026-04-25 21:50 -4.08750 176.78079 39856 ft 476 kts 225°
2026-04-25 21:50 -4.13444 176.73439 39857 ft 476 kts 225°
2026-04-25 21:51 -4.18155 176.68782 39855 ft 476 kts 225°
2026-04-25 21:51 -4.22878 176.64111 39857 ft 476 kts 224°
2026-04-25 21:52 -4.27598 176.59443 39858 ft 477 kts 224°
2026-04-25 21:52 -4.31519 176.55564 39856 ft 477 kts 224°
2026-04-25 21:53 -4.37011 176.50131 39856 ft 477 kts 224°
2026-04-25 21:53 -4.41729 176.45463 39857 ft 477 kts 224°
2026-04-25 21:54 -4.45685 176.41547 39857 ft 476 kts 224°
2026-04-25 21:54 -4.50380 176.36900 39858 ft 476 kts 224°
2026-04-25 21:55 -4.55099 176.32228 39856 ft 476 kts 224°
2026-04-25 21:55 -4.59816 176.27557 39857 ft 477 kts 224°
2026-04-25 21:56 -4.64535 176.22883 39855 ft 477 kts 224°
2026-04-25 21:56 -4.69248 176.18214 39854 ft 477 kts 224°
2026-04-25 21:57 -4.73973 176.13532 39857 ft 477 kts 224°
2026-04-25 21:57 -4.78674 176.08873 39857 ft 477 kts 224°
2026-04-25 21:58 -4.83397 176.04191 39858 ft 477 kts 224°
2026-04-25 21:58 -4.88114 175.99514 39854 ft 477 kts 224°
2026-04-25 21:59 -4.92837 175.94831 39854 ft 477 kts 224°
2026-04-25 21:59 -4.97554 175.90152 39855 ft 476 kts 224°
2026-04-25 22:00 -5.04627 175.83134 39859 ft 477 kts 224°
2026-04-25 22:00 -5.09304 175.78493 39857 ft 476 kts 225°
2026-04-25 22:01 -5.14013 175.73818 39854 ft 476 kts 225°
2026-04-25 22:01 -5.17959 175.69900 39852 ft 476 kts 225°
2026-04-25 22:02 -5.23434 175.64463 39854 ft 476 kts 225°
2026-04-25 22:02 -5.28148 175.59781 39854 ft 476 kts 225°
2026-04-25 22:03 -5.32863 175.55097 39855 ft 476 kts 225°
2026-04-25 22:03 -5.37572 175.50417 39853 ft 476 kts 225°
2026-04-25 22:04 -5.42280 175.45737 39856 ft 476 kts 225°
2026-04-25 22:04 -5.46960 175.41085 39854 ft 476 kts 225°
2026-04-25 22:05 -5.51666 175.36405 39854 ft 476 kts 225°
2026-04-25 22:05 -5.56373 175.31722 39854 ft 477 kts 225°
2026-04-25 22:06 -5.61077 175.27043 39856 ft 476 kts 225°
2026-04-25 22:06 -5.65757 175.22385 39853 ft 476 kts 225°
2026-04-25 22:07 -5.69700 175.18461 39851 ft 476 kts 225°
2026-04-25 22:07 -5.75166 175.13019 39853 ft 476 kts 225°
2026-04-25 22:08 -5.79871 175.08332 39851 ft 475 kts 225°
2026-04-25 22:08 -5.84573 175.03649 39855 ft 475 kts 225°
2026-04-25 22:09 -5.89250 174.98988 39853 ft 475 kts 225°
2026-04-25 22:09 -5.93950 174.94305 39851 ft 475 kts 225°
2026-04-25 22:10 -5.98645 174.89624 39853 ft 475 kts 225°
2026-04-25 22:10 -6.03340 174.84943 39852 ft 475 kts 225°
2026-04-25 22:11 -6.08035 174.80260 39858 ft 475 kts 225°
2026-04-25 22:11 -6.12727 174.75579 39855 ft 475 kts 225°
2026-04-25 22:12 -6.17411 174.70905 39854 ft 475 kts 225°
2026-04-25 22:12 -6.21306 174.67017 39856 ft 475 kts 225°
2026-04-25 22:13 -6.26759 174.61573 39854 ft 476 kts 225°
2026-04-25 22:13 -6.31453 174.56885 39856 ft 476 kts 225°
2026-04-25 22:14 -6.36154 174.52189 39853 ft 476 kts 225°
2026-04-25 22:14 -6.40849 174.47497 39857 ft 476 kts 225°
2026-04-25 22:15 -6.45550 174.42799 39860 ft 475 kts 225°
2026-04-25 22:16 -6.52559 174.35791 39860 ft 476 kts 225°
2026-04-25 22:16 -6.57249 174.31099 39859 ft 476 kts 225°
2026-04-25 22:17 -6.61941 174.26405 39859 ft 476 kts 226°
2026-04-25 22:17 -6.66644 174.21699 39858 ft 477 kts 225°
2026-04-25 22:18 -6.71338 174.16978 39858 ft 477 kts 226°
2026-04-25 22:18 -6.76012 174.12243 39859 ft 477 kts 226°
2026-04-25 22:19 -6.80656 174.07539 39859 ft 477 kts 226°
2026-04-25 22:19 -6.85249 174.02891 39861 ft 476 kts 226°
2026-04-25 22:20 -6.89925 173.98161 39856 ft 476 kts 226°
2026-04-25 22:20 -6.94595 173.93436 39854 ft 476 kts 226°
2026-04-25 22:21 -6.99275 173.88700 39853 ft 477 kts 226°
2026-04-25 22:21 -7.03955 173.83963 39856 ft 478 kts 226°
2026-04-25 22:22 -7.08644 173.79214 39855 ft 478 kts 226°
2026-04-25 22:22 -7.13332 173.74464 39854 ft 478 kts 226°
2026-04-25 22:23 -7.18016 173.69717 39856 ft 478 kts 226°
2026-04-25 22:23 -7.22678 173.64992 39855 ft 478 kts 226°
2026-04-25 22:24 -7.27365 173.60240 39856 ft 478 kts 226°
2026-04-25 22:24 -7.32050 173.55487 39857 ft 478 kts 226°
2026-04-25 22:25 -7.36738 173.50731 39856 ft 478 kts 226°
2026-04-25 22:25 -7.41439 173.45959 39857 ft 479 kts 226°
2026-04-25 22:26 -7.46140 173.41186 39856 ft 479 kts 226°
2026-04-25 22:26 -7.50807 173.36447 39856 ft 479 kts 226°
2026-04-25 22:27 -7.55499 173.31679 39865 ft 479 kts 226°
2026-04-25 22:27 -7.60189 173.26911 39861 ft 478 kts 226°
2026-04-25 22:28 -7.64871 173.22153 39858 ft 478 kts 226°
2026-04-25 22:28 -7.69547 173.17397 39861 ft 478 kts 226°
2026-04-25 22:29 -7.74228 173.12637 39863 ft 478 kts 226°
2026-04-25 22:29 -7.78915 173.07867 39862 ft 478 kts 226°
2026-04-25 22:30 -7.85920 173.00735 39862 ft 478 kts 226°
2026-04-25 22:30 -7.89845 172.96738 39862 ft 478 kts 226°
2026-04-25 22:31 -7.95286 172.91194 39862 ft 478 kts 226°
2026-04-25 22:31 -7.99970 172.86420 39862 ft 478 kts 226°
2026-04-25 22:32 -8.04655 172.81644 39857 ft 478 kts 226°
2026-04-25 22:32 -8.09336 172.76869 39859 ft 478 kts 226°
2026-04-25 22:33 -8.14019 172.72091 39862 ft 478 kts 226°
2026-04-25 22:33 -8.18705 172.67309 39860 ft 478 kts 226°
2026-04-25 22:34 -8.23380 172.62535 39864 ft 478 kts 226°
2026-04-25 22:34 -8.28058 172.57758 39865 ft 478 kts 226°
2026-04-25 22:35 -8.32737 172.52977 39862 ft 478 kts 226°
2026-04-25 22:35 -8.37386 172.48225 39860 ft 478 kts 226°
2026-04-25 22:36 -8.42062 172.43444 39860 ft 478 kts 226°
2026-04-25 22:36 -8.46738 172.38662 39857 ft 479 kts 226°
2026-04-25 22:37 -8.51433 172.33858 39859 ft 480 kts 226°
2026-04-25 22:37 -8.56134 172.29046 39860 ft 481 kts 226°
2026-04-25 22:38 -8.60833 172.24235 39859 ft 480 kts 226°
2026-04-25 22:38 -8.65529 172.19424 39860 ft 480 kts 226°
2026-04-25 22:39 -8.70186 172.14652 39860 ft 479 kts 226°
2026-04-25 22:39 -8.74870 172.09850 39862 ft 479 kts 226°
2026-04-25 22:40 -8.79551 172.05049 39858 ft 479 kts 226°
2026-04-25 22:40 -8.83438 172.01062 39860 ft 479 kts 226°
2026-04-25 22:41 -8.88123 171.96254 39858 ft 480 kts 226°
2026-04-25 22:41 -8.92810 171.91442 39858 ft 480 kts 226°
2026-04-25 22:42 -8.97500 171.86626 39859 ft 480 kts 226°
2026-04-25 22:42 -9.02186 171.81811 39862 ft 480 kts 226°
2026-04-25 22:43 -9.06864 171.77003 39860 ft 479 kts 226°
2026-04-25 22:43 -9.11517 171.72218 39860 ft 479 kts 226°
2026-04-25 22:44 -9.16191 171.67410 39859 ft 479 kts 227°
2026-04-25 22:44 -9.20862 171.62604 39857 ft 479 kts 227°
2026-04-25 22:45 -9.25544 171.57786 39858 ft 479 kts 227°
2026-04-25 22:45 -9.30383 171.53196 39858 ft 480 kts 223°
2026-04-25 22:46 -9.35395 171.48714 39859 ft 480 kts 223°
2026-04-25 22:46 -9.40381 171.44217 39860 ft 480 kts 223°
2026-04-25 22:47 -9.45351 171.39672 39860 ft 480 kts 224°
2026-04-25 22:47 -9.50297 171.35125 39859 ft 480 kts 224°
2026-04-25 22:48 -9.55216 171.30599 39859 ft 480 kts 224°
2026-04-25 22:48 -9.60161 171.26051 39859 ft 480 kts 224°
2026-04-25 22:49 -9.65105 171.21503 39860 ft 480 kts 224°
2026-04-25 22:49 -9.70043 171.16958 39860 ft 480 kts 224°
2026-04-25 22:50 -9.74985 171.12408 39856 ft 480 kts 224°
2026-04-25 22:50 -9.79923 171.07860 39855 ft 480 kts 224°
2026-04-25 22:51 -9.84863 171.03308 39856 ft 480 kts 224°
2026-04-25 22:51 -9.89776 170.98780 39859 ft 480 kts 224°
2026-04-25 22:52 -9.94714 170.94225 39860 ft 480 kts 224°
2026-04-25 22:52 -9.98825 170.90433 39862 ft 480 kts 224°
2026-04-25 22:53 -10.04603 170.85099 39861 ft 480 kts 224°
2026-04-25 22:53 -10.09544 170.80537 39862 ft 480 kts 224°
2026-04-25 22:54 -10.14484 170.75974 39863 ft 480 kts 224°
2026-04-25 22:54 -10.19421 170.71411 39864 ft 480 kts 224°
2026-04-25 22:55 -10.24357 170.66847 39865 ft 480 kts 224°
2026-04-25 22:55 -10.29293 170.62281 39865 ft 480 kts 224°
2026-04-25 22:56 -10.34198 170.57741 39868 ft 480 kts 224°
2026-04-25 22:56 -10.39134 170.53172 39865 ft 480 kts 224°
2026-04-25 22:57 -10.44066 170.48603 39871 ft 480 kts 224°
2026-04-25 22:57 -10.48997 170.44034 39868 ft 480 kts 224°
2026-04-25 22:58 -10.53926 170.39464 39867 ft 480 kts 224°
2026-04-25 22:58 -10.58857 170.34890 39867 ft 480 kts 224°
2026-04-25 22:59 -10.63788 170.30315 39871 ft 480 kts 224°
2026-04-25 22:59 -10.68716 170.25739 39869 ft 480 kts 224°
2026-04-25 23:00 -10.73614 170.21190 39873 ft 480 kts 224°
2026-04-25 23:00 -10.78543 170.16610 39867 ft 480 kts 224°
2026-04-25 23:01 -10.83477 170.12024 39865 ft 480 kts 224°
2026-04-25 23:01 -10.88408 170.07437 39868 ft 480 kts 224°
2026-04-25 23:02 -10.93336 170.02851 39867 ft 480 kts 224°
2026-04-25 23:02 -10.98241 169.98285 39868 ft 480 kts 224°
2026-04-25 23:03 -11.03170 169.93694 39866 ft 480 kts 224°
2026-04-25 23:03 -11.08099 169.89101 39867 ft 480 kts 224°
2026-04-25 23:04 -11.12190 169.85287 39868 ft 480 kts 224°
2026-04-25 23:04 -11.17951 169.79914 39866 ft 481 kts 224°
2026-04-25 23:05 -11.22887 169.75308 39866 ft 481 kts 224°
2026-04-25 23:05 -11.27823 169.70699 39866 ft 481 kts 224°
2026-04-25 23:06 -11.32761 169.66087 39868 ft 481 kts 224°
2026-04-25 23:06 -11.37664 169.61504 39867 ft 481 kts 225°
2026-04-25 23:07 -11.42598 169.56891 39868 ft 481 kts 225°
2026-04-25 23:07 -11.47533 169.52275 39867 ft 481 kts 225°
2026-04-25 23:08 -11.52466 169.47658 39868 ft 482 kts 225°
2026-04-25 23:08 -11.57404 169.43034 39868 ft 482 kts 225°
2026-04-25 23:09 -11.62338 169.38412 39868 ft 481 kts 225°
2026-04-25 23:09 -11.67268 169.33790 39867 ft 481 kts 225°
2026-04-25 23:10 -11.72198 169.29167 39867 ft 481 kts 225°
2026-04-25 23:10 -11.77094 169.24573 39865 ft 481 kts 225°
2026-04-25 23:11 -11.82016 169.19953 39866 ft 481 kts 225°
2026-04-25 23:11 -11.86946 169.15323 39862 ft 480 kts 225°
2026-04-25 23:12 -11.91866 169.10698 39862 ft 480 kts 225°
2026-04-25 23:12 -11.96782 169.06076 39861 ft 480 kts 225°
2026-04-25 23:13 -12.01698 169.01452 39862 ft 480 kts 225°
2026-04-25 23:13 -12.06625 168.96830 39863 ft 480 kts 224°
2026-04-25 23:14 -12.11653 168.92327 39862 ft 481 kts 223°
2026-04-25 23:14 -12.16693 168.87885 39862 ft 481 kts 223°
2026-04-25 23:15 -12.21752 168.83399 39860 ft 481 kts 224°
2026-04-25 23:15 -12.26801 168.78896 39861 ft 482 kts 224°
2026-04-25 23:16 -12.31846 168.74387 39861 ft 482 kts 224°
2026-04-25 23:16 -12.36896 168.69871 39859 ft 482 kts 224°
2026-04-25 23:17 -12.41946 168.65354 39854 ft 482 kts 224°
2026-04-25 23:17 -12.46994 168.60836 39858 ft 482 kts 224°
2026-04-25 23:18 -12.52042 168.56316 39852 ft 482 kts 224°
2026-04-25 23:18 -12.57059 168.51822 39862 ft 482 kts 224°
2026-04-25 23:19 -12.62103 168.47300 39864 ft 482 kts 224°
2026-04-25 23:19 -12.67148 168.42775 39859 ft 482 kts 224°
2026-04-25 23:20 -12.72194 168.38248 39861 ft 482 kts 224°
2026-04-25 23:20 -12.77239 168.33718 39860 ft 482 kts 224°
2026-04-25 23:21 -12.82287 168.29184 39863 ft 482 kts 224°
2026-04-25 23:21 -12.87305 168.24673 39869 ft 482 kts 225°
2026-04-25 23:22 -12.92341 168.20145 39858 ft 481 kts 225°
2026-04-25 23:23 -12.99904 168.13339 39863 ft 481 kts 225°
2026-04-25 23:23 -13.04939 168.08804 39867 ft 481 kts 225°
2026-04-25 23:24 -13.09975 168.04266 39865 ft 481 kts 225°
2026-04-25 23:24 -13.15006 167.99730 39859 ft 481 kts 225°
2026-04-25 23:25 -13.20038 167.95191 39869 ft 481 kts 225°
2026-04-25 23:25 -13.25016 167.90698 39856 ft 478 kts 225°
2026-04-25 23:26 -13.30009 167.86190 39870 ft 477 kts 225°
2026-04-25 23:26 -13.34999 167.81679 39859 ft 477 kts 225°
2026-04-25 23:27 -13.39992 167.77164 39875 ft 477 kts 225°
2026-04-25 23:27 -13.44132 167.73419 39871 ft 477 kts 225°
2026-04-25 23:28 -13.49117 167.68907 39872 ft 477 kts 225°
2026-04-25 23:28 -13.54097 167.64397 39875 ft 477 kts 225°
2026-04-25 23:29 -13.59883 167.59154 39893 ft 476 kts 225°
2026-04-25 23:29 -13.64049 167.55375 39896 ft 476 kts 225°
2026-04-25 23:30 -13.68987 167.50894 39901 ft 476 kts 225°
2026-04-25 23:30 -13.73954 167.46386 39906 ft 476 kts 225°
2026-04-25 23:31 -13.78917 167.41879 39902 ft 476 kts 225°
2026-04-25 23:31 -13.83884 167.37365 39903 ft 476 kts 225°
2026-04-25 23:32 -13.88853 167.32846 39907 ft 476 kts 226°
2026-04-25 23:32 -13.93816 167.28329 39889 ft 475 kts 226°
2026-04-25 23:33 -13.98733 167.23853 39885 ft 475 kts 226°
2026-04-25 23:33 -14.03684 167.19343 39876 ft 475 kts 226°
2026-04-25 23:34 -14.08642 167.14824 39876 ft 476 kts 226°
2026-04-25 23:34 -14.13603 167.10300 39875 ft 476 kts 226°
2026-04-25 23:35 -14.18561 167.05775 39876 ft 476 kts 226°
2026-04-25 23:35 -14.23519 167.01247 39876 ft 476 kts 226°
2026-04-25 23:36 -14.28476 166.96718 39871 ft 475 kts 226°
2026-04-25 23:36 -14.33398 166.92218 39878 ft 476 kts 226°
2026-04-25 23:37 -14.38353 166.87684 39878 ft 476 kts 226°
2026-04-25 23:37 -14.43305 166.83151 39878 ft 476 kts 226°
2026-04-25 23:38 -14.48257 166.78615 39875 ft 476 kts 226°
2026-04-25 23:38 -14.53208 166.74077 39875 ft 476 kts 226°
2026-04-25 23:39 -14.58157 166.69539 39879 ft 474 kts 226°
2026-04-25 23:39 -14.63050 166.65049 39881 ft 474 kts 226°
2026-04-25 23:40 -14.67985 166.60516 39882 ft 474 kts 226°
2026-04-25 23:40 -14.72908 166.55991 39884 ft 474 kts 226°
2026-04-25 23:41 -14.77831 166.51465 39884 ft 474 kts 226°
2026-04-25 23:41 -14.82753 166.46937 39884 ft 473 kts 226°
2026-04-25 23:42 -14.87631 166.42446 39888 ft 472 kts 226°
2026-04-25 23:42 -14.92539 166.37926 39886 ft 471 kts 227°
2026-04-25 23:43 -14.97430 166.33417 39881 ft 471 kts 227°
2026-04-25 23:43 -15.02324 166.28902 39881 ft 471 kts 227°
2026-04-25 23:44 -15.07215 166.24388 39881 ft 471 kts 227°
2026-04-25 23:44 -15.12104 166.19872 39878 ft 471 kts 227°
2026-04-25 23:45 -15.16994 166.15353 39881 ft 471 kts 227°
2026-04-25 23:45 -15.21882 166.10833 39890 ft 471 kts 227°
2026-04-25 23:46 -15.26768 166.06312 39882 ft 471 kts 227°
2026-04-25 23:46 -15.31652 166.01789 39881 ft 471 kts 227°
2026-04-25 23:47 -15.36535 165.97265 39883 ft 471 kts 227°
2026-04-25 23:47 -15.41393 165.92761 39883 ft 471 kts 227°
2026-04-25 23:48 -15.46285 165.88222 39881 ft 471 kts 227°
2026-04-25 23:48 -15.51167 165.83690 39881 ft 471 kts 227°
2026-04-25 23:49 -15.56093 165.79189 39883 ft 472 kts 226°
2026-04-25 23:49 -15.61193 165.74893 39884 ft 473 kts 225°
2026-04-25 23:50 -15.66296 165.70650 39886 ft 473 kts 225°
2026-04-25 23:50 -15.71401 165.66355 39885 ft 472 kts 225°
2026-04-25 23:51 -15.76498 165.62030 39884 ft 472 kts 225°
2026-04-25 23:51 -15.81582 165.57705 39884 ft 472 kts 225°
2026-04-25 23:52 -15.86667 165.53378 39893 ft 472 kts 226°
2026-04-25 23:52 -15.91704 165.49091 39880 ft 471 kts 226°
2026-04-25 23:53 -15.96768 165.44777 39882 ft 470 kts 226°
2026-04-25 23:53 -16.01826 165.40466 39882 ft 470 kts 226°
2026-04-25 23:54 -16.06882 165.36154 39885 ft 470 kts 226°
2026-04-25 23:54 -16.11940 165.31837 39883 ft 470 kts 226°
2026-04-25 23:55 -16.17006 165.27510 39891 ft 470 kts 226°
2026-04-25 23:55 -16.22051 165.23201 39888 ft 467 kts 226°
2026-04-25 23:56 -16.27034 165.18942 39884 ft 466 kts 226°
2026-04-25 23:56 -16.32041 165.14655 39883 ft 465 kts 226°
2026-04-25 23:57 -16.37043 165.10369 39884 ft 465 kts 226°
2026-04-25 23:57 -16.42045 165.06082 39886 ft 465 kts 226°
2026-04-25 23:58 -16.47044 165.01795 39887 ft 465 kts 226°
2026-04-25 23:58 -16.52019 164.97527 39897 ft 465 kts 227°
2026-04-25 23:59 -16.57008 164.93244 39889 ft 464 kts 227°
2026-04-25 23:59 -16.61983 164.88968 39888 ft 464 kts 227°
2026-04-26 00:00 -16.66121 164.85409 39887 ft 464 kts 227°
2026-04-26 00:00 -16.71941 164.80401 39888 ft 464 kts 227°
2026-04-26 00:01 -16.76918 164.76115 39899 ft 464 kts 227°
2026-04-26 00:01 -16.81896 164.71825 39919 ft 464 kts 227°
2026-04-26 00:02 -16.86827 164.67575 39892 ft 461 kts 227°
2026-04-26 00:02 -16.91773 164.63308 39895 ft 461 kts 227°
2026-04-26 00:03 -16.96713 164.59040 39896 ft 461 kts 227°
2026-04-26 00:03 -17.01656 164.54768 39895 ft 461 kts 227°
2026-04-26 00:04 -17.06597 164.50495 39893 ft 461 kts 227°
2026-04-26 00:04 -17.11537 164.46220 39895 ft 461 kts 227°
2026-04-26 00:05 -17.16474 164.41946 39897 ft 460 kts 227°
2026-04-26 00:05 -17.21403 164.37676 39894 ft 459 kts 227°
2026-04-26 00:06 -17.26283 164.33443 39905 ft 458 kts 228°
2026-04-26 00:06 -17.31188 164.29187 39904 ft 458 kts 228°
2026-04-26 00:07 -17.36090 164.24928 39900 ft 457 kts 228°
2026-04-26 00:07 -17.40994 164.20665 39903 ft 457 kts 228°
2026-04-26 00:08 -17.45894 164.16403 39906 ft 457 kts 228°
2026-04-26 00:08 -17.50758 164.12171 39904 ft 457 kts 228°
2026-04-26 00:09 -17.55654 164.07906 39910 ft 457 kts 228°
2026-04-26 00:09 -17.60547 164.03641 39901 ft 457 kts 228°
2026-04-26 00:10 -17.65438 163.99375 39910 ft 457 kts 228°
2026-04-26 00:10 -17.70325 163.95110 39898 ft 457 kts 228°
2026-04-26 00:11 -17.75216 163.90837 39916 ft 457 kts 228°
2026-04-26 00:11 -17.80091 163.86578 39908 ft 456 kts 228°
2026-04-26 00:12 -17.84959 163.82319 39906 ft 455 kts 229°
2026-04-26 00:12 -17.89785 163.78093 39906 ft 455 kts 229°
2026-04-26 00:13 -17.94644 163.73836 39906 ft 455 kts 229°
2026-04-26 00:13 -17.99506 163.69573 39906 ft 455 kts 229°
2026-04-26 00:14 -18.04366 163.65308 39908 ft 455 kts 229°
2026-04-26 00:14 -18.09218 163.61051 39914 ft 453 kts 229°
2026-04-26 00:15 -18.14046 163.56810 39906 ft 451 kts 229°
2026-04-26 00:15 -18.18856 163.52578 39914 ft 451 kts 229°
2026-04-26 00:16 -18.23668 163.48341 39906 ft 451 kts 229°
2026-04-26 00:16 -18.28481 163.44102 39913 ft 451 kts 229°
2026-04-26 00:17 -18.33292 163.39862 39912 ft 451 kts 229°
2026-04-26 00:17 -18.38071 163.35648 39940 ft 451 kts 229°
2026-04-26 00:18 -18.42882 163.31403 39911 ft 450 kts 230°
2026-04-26 00:18 -18.46879 163.27872 39912 ft 450 kts 230°
2026-04-26 00:19 -18.51678 163.23629 39914 ft 450 kts 230°
2026-04-26 00:19 -18.56480 163.19381 39914 ft 450 kts 230°
2026-04-26 00:20 -18.61280 163.15133 39914 ft 450 kts 230°
2026-04-26 00:20 -18.66080 163.10880 39914 ft 450 kts 230°
2026-04-26 00:21 -18.70875 163.06629 39913 ft 450 kts 230°
2026-04-26 00:21 -18.75670 163.02375 39914 ft 450 kts 230°
2026-04-26 00:22 -18.80439 162.98143 39914 ft 450 kts 230°
2026-04-26 00:22 -18.85232 162.93874 39916 ft 450 kts 230°
2026-04-26 00:23 -18.90020 162.89602 39919 ft 450 kts 230°
2026-04-26 00:23 -18.94807 162.85329 39919 ft 450 kts 230°
2026-04-26 00:24 -18.99567 162.81080 39939 ft 450 kts 230°
2026-04-26 00:24 -19.04354 162.76804 39921 ft 450 kts 230°
2026-04-26 00:25 -19.09140 162.72525 39925 ft 450 kts 230°
2026-04-26 00:25 -19.13930 162.68239 39925 ft 450 kts 230°
2026-04-26 00:26 -19.18713 162.63956 39920 ft 450 kts 230°
2026-04-26 00:26 -19.23496 162.59670 39915 ft 450 kts 230°
2026-04-26 00:27 -19.28275 162.55383 39966 ft 451 kts 230°
2026-04-26 00:27 -19.33022 162.51125 39923 ft 449 kts 230°
2026-04-26 00:28 -19.37778 162.46853 39925 ft 448 kts 230°
2026-04-26 00:28 -19.42540 162.42570 39924 ft 448 kts 230°
2026-04-26 00:29 -19.47293 162.38293 39919 ft 448 kts 230°
2026-04-26 00:29 -19.52045 162.34013 39923 ft 448 kts 230°
2026-04-26 00:30 -19.56797 162.29732 39922 ft 448 kts 230°
2026-04-26 00:30 -19.61584 162.25512 39922 ft 446 kts 229°
2026-04-26 00:31 -19.66450 162.21501 39924 ft 443 kts 228°
2026-04-26 00:31 -19.71319 162.17501 39923 ft 442 kts 228°
2026-04-26 00:32 -19.76157 162.13482 39924 ft 441 kts 229°
2026-04-26 00:32 -19.83371 162.07450 39925 ft 441 kts 229°
2026-04-26 00:33 -19.88194 162.03412 39972 ft 441 kts 229°
2026-04-26 00:33 -19.92995 161.99395 39921 ft 437 kts 229°
2026-04-26 00:34 -19.97771 161.95393 39922 ft 437 kts 229°
2026-04-26 00:34 -20.02549 161.91383 39922 ft 437 kts 229°
2026-04-26 00:35 -20.07287 161.87404 39925 ft 437 kts 229°
2026-04-26 00:35 -20.12051 161.83402 39927 ft 437 kts 229°
2026-04-26 00:36 -20.16826 161.79388 39927 ft 436 kts 229°
2026-04-26 00:36 -20.21588 161.75382 39934 ft 435 kts 229°
2026-04-26 00:37 -20.26339 161.71382 39928 ft 435 kts 229°
2026-04-26 00:37 -20.31060 161.67403 39926 ft 435 kts 229°
2026-04-26 00:38 -20.35808 161.63397 39929 ft 435 kts 229°
2026-04-26 00:38 -20.40552 161.59392 39927 ft 435 kts 229°
2026-04-26 00:39 -20.45301 161.55381 39930 ft 434 kts 229°
2026-04-26 00:39 -20.50031 161.51384 39929 ft 433 kts 229°
2026-04-26 00:40 -20.54730 161.47408 39935 ft 433 kts 229°
2026-04-26 00:40 -20.59457 161.43403 39931 ft 433 kts 229°
2026-04-26 00:41 -20.64180 161.39400 39937 ft 433 kts 229°
2026-04-26 00:41 -20.68903 161.35394 39932 ft 433 kts 229°
2026-04-26 00:42 -20.73622 161.31388 39932 ft 433 kts 229°
2026-04-26 00:42 -20.78315 161.27400 39934 ft 433 kts 229°
2026-04-26 00:43 -20.83035 161.23387 39936 ft 433 kts 229°
2026-04-26 00:43 -20.87744 161.19380 39938 ft 432 kts 229°
2026-04-26 00:44 -20.92440 161.15382 39941 ft 431 kts 229°
2026-04-26 00:44 -20.97128 161.11385 39938 ft 431 kts 229°
2026-04-26 00:45 -21.01818 161.07382 39938 ft 431 kts 229°
2026-04-26 00:45 -21.06511 161.03375 39944 ft 431 kts 228°
2026-04-26 00:46 -21.11214 160.99356 39944 ft 432 kts 228°
2026-04-26 00:46 -21.15917 160.95333 39944 ft 432 kts 228°
2026-04-26 00:47 -21.20592 160.91332 39941 ft 432 kts 228°
2026-04-26 00:47 -21.25295 160.87303 39958 ft 432 kts 228°
2026-04-26 00:48 -21.29983 160.83285 39941 ft 430 kts 228°
2026-04-26 00:48 -21.34654 160.79276 39951 ft 431 kts 227°
2026-04-26 00:49 -21.39325 160.75261 39944 ft 433 kts 227°
2026-04-26 00:49 -21.44038 160.71210 39944 ft 433 kts 227°
2026-04-26 00:50 -21.48744 160.67163 39942 ft 434 kts 227°
2026-04-26 00:50 -21.53431 160.63128 39944 ft 433 kts 227°
2026-04-26 00:51 -21.58136 160.59074 39952 ft 433 kts 227°
2026-04-26 00:51 -21.62842 160.55014 39963 ft 435 kts 227°
2026-04-26 00:52 -21.67574 160.50926 39952 ft 436 kts 227°
2026-04-26 00:52 -21.72303 160.46843 39952 ft 435 kts 227°
2026-04-26 00:53 -21.77026 160.42760 39952 ft 435 kts 227°
2026-04-26 00:53 -21.81746 160.38675 39955 ft 435 kts 227°
2026-04-26 00:54 -21.86435 160.34613 39955 ft 435 kts 227°
2026-04-26 00:54 -21.91156 160.30518 39967 ft 437 kts 227°
2026-04-26 00:55 -21.95911 160.26388 39958 ft 440 kts 227°
2026-04-26 00:55 -22.00685 160.22243 39964 ft 440 kts 227°
2026-04-26 00:56 -22.05451 160.18102 39969 ft 439 kts 227°
2026-04-26 00:56 -22.10177 160.13992 39965 ft 439 kts 227°
2026-04-26 00:57 -22.14932 160.09852 39967 ft 438 kts 227°
2026-04-26 00:57 -22.19681 160.05710 39967 ft 440 kts 227°
2026-04-26 00:58 -22.24468 160.01529 39970 ft 443 kts 226°
2026-04-26 00:58 -22.29275 159.97334 39971 ft 444 kts 226°
2026-04-26 00:59 -22.34071 159.93144 39974 ft 443 kts 226°
2026-04-26 00:59 -22.38843 159.88971 39978 ft 443 kts 227°
2026-04-26 01:00 -22.43633 159.84775 39983 ft 443 kts 226°
2026-04-26 01:00 -22.48422 159.80577 39990 ft 443 kts 226°
2026-04-26 01:01 -22.53195 159.76390 39981 ft 445 kts 226°
2026-04-26 01:01 -22.57811 159.71996 39990 ft 439 kts 231°
2026-04-26 01:02 -22.62093 159.67294 39987 ft 438 kts 232°
2026-04-26 01:02 -22.66318 159.62542 39993 ft 438 kts 233°
2026-04-26 01:03 -22.70534 159.57784 39993 ft 438 kts 233°
2026-04-26 01:03 -22.74762 159.53019 39990 ft 439 kts 232°
2026-04-26 01:04 -22.78993 159.48252 39995 ft 438 kts 232°
2026-04-26 01:04 -22.83220 159.43490 39996 ft 438 kts 232°
2026-04-26 01:05 -22.87440 159.38730 40001 ft 438 kts 232°
2026-04-26 01:05 -22.91629 159.33999 40001 ft 438 kts 232°
2026-04-26 01:06 -22.95873 159.29202 39999 ft 438 kts 232°
2026-04-26 01:06 -23.00068 159.24454 40008 ft 439 kts 232°
2026-04-26 01:07 -23.04305 159.19654 40001 ft 440 kts 232°
2026-04-26 01:07 -23.07824 159.15664 40001 ft 439 kts 232°
2026-04-26 01:08 -23.12742 159.10087 40004 ft 439 kts 232°
2026-04-26 01:08 -23.16961 159.05295 40004 ft 439 kts 232°
2026-04-26 01:09 -23.20498 159.01274 40012 ft 439 kts 232°
2026-04-26 01:09 -23.24691 158.96502 40015 ft 439 kts 232°
2026-04-26 01:10 -23.28911 158.91695 40015 ft 439 kts 232°
2026-04-26 01:10 -23.33127 158.86888 40018 ft 439 kts 232°
2026-04-26 01:11 -23.37335 158.82086 40018 ft 438 kts 232°
2026-04-26 01:11 -23.41539 158.77284 40018 ft 437 kts 232°
2026-04-26 01:12 -23.45708 158.72517 40015 ft 437 kts 232°
2026-04-26 01:12 -23.49904 158.67712 40034 ft 437 kts 232°
2026-04-26 01:13 -23.54110 158.62891 40018 ft 440 kts 232°
2026-04-26 01:13 -23.58334 158.58047 40021 ft 441 kts 232°
2026-04-26 01:14 -23.62556 158.53201 40023 ft 441 kts 232°
2026-04-26 01:14 -23.66782 158.48346 40024 ft 440 kts 232°
2026-04-26 01:15 -23.70977 158.43520 40026 ft 440 kts 232°
2026-04-26 01:15 -23.75189 158.38669 40026 ft 440 kts 232°
2026-04-26 01:16 -23.79422 158.33789 40024 ft 444 kts 232°
2026-04-26 01:16 -23.83679 158.28876 40023 ft 445 kts 232°
2026-04-26 01:17 -23.87906 158.23995 40023 ft 445 kts 232°
2026-04-26 01:17 -23.92159 158.19079 40021 ft 444 kts 231°
2026-04-26 01:18 -23.96401 158.14170 40029 ft 443 kts 232°
2026-04-26 01:18 -24.00630 158.09270 40065 ft 443 kts 232°
2026-04-26 01:19 -24.04873 158.04347 40032 ft 447 kts 231°
2026-04-26 01:19 -24.09152 157.99378 40030 ft 448 kts 231°
2026-04-26 01:20 -24.13402 157.94440 40030 ft 448 kts 231°
2026-04-26 01:20 -24.17686 157.89457 40029 ft 448 kts 231°
2026-04-26 01:21 -24.21962 157.84478 40038 ft 448 kts 231°
2026-04-26 01:21 -24.26220 157.79515 40063 ft 447 kts 231°
2026-04-26 01:22 -24.30487 157.74533 40036 ft 450 kts 231°
2026-04-26 01:22 -24.34777 157.69520 40036 ft 451 kts 231°
2026-04-26 01:23 -24.39065 157.64506 40038 ft 451 kts 231°
2026-04-26 01:23 -24.43327 157.59517 40041 ft 451 kts 231°
2026-04-26 01:24 -24.47611 157.54496 40040 ft 451 kts 231°
2026-04-26 01:24 -24.51889 157.49476 40057 ft 450 kts 231°
2026-04-26 01:25 -24.56167 157.44451 40046 ft 451 kts 231°
2026-04-26 01:25 -24.60458 157.39406 40049 ft 451 kts 231°
2026-04-26 01:26 -24.64747 157.34358 40052 ft 451 kts 231°
2026-04-26 01:26 -24.69030 157.29311 40051 ft 451 kts 231°
2026-04-26 01:27 -24.73289 157.24288 40054 ft 451 kts 231°
2026-04-26 01:27 -24.77570 157.19232 40053 ft 452 kts 230°
2026-04-26 01:28 -24.81858 157.14162 40062 ft 452 kts 230°
2026-04-26 01:28 -24.86142 157.09093 40062 ft 452 kts 230°
2026-04-26 01:29 -24.90426 157.04018 40067 ft 452 kts 230°
2026-04-26 01:29 -24.94705 156.98943 40067 ft 452 kts 230°
2026-04-26 01:30 -24.98980 156.93867 40067 ft 452 kts 230°
2026-04-26 01:30 -25.03256 156.88783 40066 ft 452 kts 230°
2026-04-26 01:31 -25.07528 156.83701 40070 ft 451 kts 230°
2026-04-26 01:31 -25.11766 156.78652 40076 ft 451 kts 230°
2026-04-26 01:32 -25.16024 156.73575 40075 ft 451 kts 230°
2026-04-26 01:32 -25.20287 156.68485 40084 ft 451 kts 230°
2026-04-26 01:33 -25.24540 156.63401 40100 ft 451 kts 230°
2026-04-26 01:33 -25.28794 156.58312 40091 ft 450 kts 230°
2026-04-26 01:34 -25.33022 156.53248 40091 ft 449 kts 230°
2026-04-26 01:34 -25.37257 156.48169 40090 ft 448 kts 230°
2026-04-26 01:35 -25.41480 156.43099 40094 ft 448 kts 230°
2026-04-26 01:35 -25.45702 156.38024 40094 ft 448 kts 230°
2026-04-26 01:36 -25.49925 156.32942 40105 ft 448 kts 230°
2026-04-26 01:37 -25.56232 156.25343 40100 ft 448 kts 230°
2026-04-26 01:37 -25.60444 156.20263 40105 ft 447 kts 230°
2026-04-26 01:38 -25.64643 156.15190 40105 ft 446 kts 230°
2026-04-26 01:38 -25.68840 156.10114 40109 ft 446 kts 230°
2026-04-26 01:39 -25.72731 156.04781 40109 ft 444 kts 237°
2026-04-26 01:39 -25.76143 155.99076 40117 ft 444 kts 238°
2026-04-26 01:40 -25.79451 155.93347 40113 ft 443 kts 239°
2026-04-26 01:40 -25.82771 155.87580 40110 ft 442 kts 239°
2026-04-26 01:41 -25.86089 155.81836 40115 ft 442 kts 239°
2026-04-26 01:41 -25.89412 155.76088 40116 ft 442 kts 239°
2026-04-26 01:42 -25.92734 155.70337 40133 ft 442 kts 238°
2026-04-26 01:42 -25.96063 155.64567 40118 ft 444 kts 239°
2026-04-26 01:43 -25.99379 155.58811 40113 ft 444 kts 239°
2026-04-26 01:43 -26.02704 155.53034 40121 ft 443 kts 239°
2026-04-26 01:44 -26.06024 155.47256 40128 ft 443 kts 239°
2026-04-26 01:44 -26.09320 155.41513 40123 ft 443 kts 239°
2026-04-26 01:45 -26.12639 155.35724 40128 ft 443 kts 239°
2026-04-26 01:45 -26.15952 155.29936 40131 ft 444 kts 239°
2026-04-26 01:46 -26.19278 155.24119 40130 ft 445 kts 239°
2026-04-26 01:46 -26.22601 155.18300 40129 ft 445 kts 239°
2026-04-26 01:47 -26.25902 155.12512 40128 ft 445 kts 239°
2026-04-26 01:47 -26.29225 155.06679 39961 ft 445 kts 239°
2026-04-26 01:47 -26.30881 155.03768 39730 ft 445 kts 239°
2026-04-26 01:48 -26.32544 155.00845 39492 ft 446 kts 239°
2026-04-26 01:48 -26.34205 154.97922 39248 ft 446 kts 239°
2026-04-26 01:48 -26.35864 154.95001 39000 ft 444 kts 238°
2026-04-26 01:48 -26.37511 154.92099 38382 ft 442 kts 238°
2026-04-26 01:49 -26.39154 154.89202 37711 ft 440 kts 238°
2026-04-26 01:49 -26.40788 154.86320 37054 ft 439 kts 238°
2026-04-26 01:49 -26.42420 154.83439 36374 ft 439 kts 238°
2026-04-26 01:49 -26.44029 154.80597 35700 ft 439 kts 238°
2026-04-26 01:50 -26.45662 154.77710 34991 ft 440 kts 238°
2026-04-26 01:50 -26.47300 154.74813 34200 ft 443 kts 238°
2026-04-26 01:50 -26.48953 154.71887 33285 ft 446 kts 238°
2026-04-26 01:50 -26.50612 154.68951 32446 ft 448 kts 238°
2026-04-26 01:51 -26.52279 154.65999 31563 ft 450 kts 238°
2026-04-26 01:51 -26.53955 154.63028 30686 ft 452 kts 238°
2026-04-26 01:51 -26.55636 154.60045 29678 ft 456 kts 238°
2026-04-26 01:51 -26.57328 154.57041 28786 ft 457 kts 238°
2026-04-26 01:52 -26.59011 154.54052 28120 ft 452 kts 238°
2026-04-26 01:52 -26.60679 154.51086 27464 ft 448 kts 238°
2026-04-26 01:52 -26.62329 154.48150 26801 ft 445 kts 238°
2026-04-26 01:52 -26.63949 154.45267 26140 ft 442 kts 238°
2026-04-26 01:53 -26.65577 154.42367 25471 ft 439 kts 238°
2026-04-26 01:53 -26.67195 154.39484 24815 ft 436 kts 238°
2026-04-26 01:53 -26.68803 154.36617 24161 ft 434 kts 238°
2026-04-26 01:53 -26.70403 154.33759 23468 ft 432 kts 238°
2026-04-26 01:54 -26.71995 154.30915 22747 ft 428 kts 238°
2026-04-26 01:54 -26.73564 154.28109 22103 ft 424 kts 238°
2026-04-26 01:54 -26.75121 154.25322 21456 ft 420 kts 238°
2026-04-26 01:54 -26.76665 154.22558 20806 ft 417 kts 237°
2026-04-26 01:55 -26.78196 154.19816 20154 ft 414 kts 237°
2026-04-26 01:55 -26.79721 154.17085 19486 ft 412 kts 237°
2026-04-26 01:55 -26.81239 154.14363 18822 ft 411 kts 237°
2026-04-26 01:55 -26.82750 154.11654 18118 ft 410 kts 237°
2026-04-26 01:56 -26.84256 154.08948 17404 ft 408 kts 237°
2026-04-26 01:56 -26.85734 154.06292 16725 ft 405 kts 237°
2026-04-26 01:56 -26.87221 154.03620 16036 ft 403 kts 236°
2026-04-26 01:56 -26.88701 154.00963 15363 ft 401 kts 236°
2026-04-26 01:57 -26.90174 153.98317 14670 ft 400 kts 236°
2026-04-26 01:57 -26.91642 153.95673 13984 ft 399 kts 237°
2026-04-26 01:57 -26.92992 153.92956 13203 ft 399 kts 240°
2026-04-26 01:57 -26.93805 153.91123 12771 ft 396 kts 242°
2026-04-26 01:58 -26.95004 153.88355 12102 ft 392 kts 241°
2026-04-26 01:58 -26.96181 153.85607 11425 ft 389 kts 242°
2026-04-26 01:58 -26.97342 153.82888 10959 ft 381 kts 242°
2026-04-26 01:58 -26.98451 153.80273 10824 ft 363 kts 242°
2026-04-26 01:59 -26.99510 153.77770 10687 ft 347 kts 241°
2026-04-26 01:59 -27.00527 153.75374 10496 ft 333 kts 242°
2026-04-26 01:59 -27.01503 153.73073 10317 ft 321 kts 241°
2026-04-26 01:59 -27.02734 153.70154 10114 ft 304 kts 241°
2026-04-26 02:00 -27.03621 153.68052 9955 ft 293 kts 240°
2026-04-26 02:00 -27.04198 153.66686 9708 ft 293 kts 240°
2026-04-26 02:00 -27.05079 153.64602 9344 ft 297 kts 241°
2026-04-26 02:00 -27.05795 153.62412 8975 ft 299 kts 250°
2026-04-26 02:01 -27.06340 153.60171 8642 ft 298 kts 252°
2026-04-26 02:01 -27.06859 153.57922 8294 ft 297 kts 251°
2026-04-26 02:01 -27.07377 153.55680 7951 ft 296 kts 252°
2026-04-26 02:01 -27.07892 153.53449 7604 ft 295 kts 252°
2026-04-26 02:02 -27.08406 153.51229 7259 ft 294 kts 251°
2026-04-26 02:02 -27.08921 153.49014 6920 ft 293 kts 251°
2026-04-26 02:02 -27.09427 153.46832 6571 ft 292 kts 252°
2026-04-26 02:02 -27.09938 153.44632 6207 ft 290 kts 251°
2026-04-26 02:03 -27.10445 153.42450 5915 ft 286 kts 252°
2026-04-26 02:03 -27.10934 153.40333 5772 ft 274 kts 252°
2026-04-26 02:03 -27.11402 153.38305 5632 ft 263 kts 252°
2026-04-26 02:03 -27.11850 153.36366 5506 ft 250 kts 252°
2026-04-26 02:04 -27.12331 153.34539 5367 ft 237 kts 244°
2026-04-26 02:04 -27.12974 153.32888 5258 ft 224 kts 240°
2026-04-26 02:04 -27.13630 153.31342 5162 ft 217 kts 239°
2026-04-26 02:04 -27.14276 153.29837 5009 ft 217 kts 239°
2026-04-26 02:05 -27.14919 153.28332 4808 ft 217 kts 239°
2026-04-26 02:05 -27.15581 153.26780 4595 ft 216 kts 239°
2026-04-26 02:05 -27.16226 153.25260 4394 ft 214 kts 240°
2026-04-26 02:05 -27.16860 153.23750 4215 ft 213 kts 240°
2026-04-26 02:06 -27.17420 153.22416 4080 ft 212 kts 240°
2026-04-26 02:06 -27.18040 153.20950 3892 ft 210 kts 239°
2026-04-26 02:06 -27.18751 153.19527 3739 ft 218 kts 229°
2026-04-26 02:06 -27.19898 153.18397 3570 ft 218 kts 200°
2026-04-26 02:07 -27.21287 153.18137 3387 ft 194 kts 168°
2026-04-26 02:07 -27.22622 153.18212 3104 ft 190 kts 176°
2026-04-26 02:07 -27.23915 153.18126 2922 ft 181 kts 177°
2026-04-26 02:07 -27.25139 153.18019 2681 ft 176 kts 178°
2026-04-26 02:08 -27.26357 153.17925 2382 ft 174 kts 178°
2026-04-26 02:08 -27.27568 153.17847 2087 ft 174 kts 178°
2026-04-26 02:08 -27.28782 153.17778 1788 ft 173 kts 177°
2026-04-26 02:08 -27.29959 153.17595 1480 ft 170 kts 194°
2026-04-26 02:09 -27.31010 153.17037 1206 ft 164 kts 205°
2026-04-26 02:09 -27.31954 153.16445 1009 ft 150 kts 202°
2026-04-26 02:09 -27.32845 153.15990 831 ft 132 kts 196°
2026-04-26 02:09 -27.33663 153.15550 741 ft 130 kts 199°
2026-04-26 02:10 -27.34460 153.15118 569 ft 127 kts 202°
2026-04-26 02:10 -27.35269 153.14691 470 ft 133 kts 203°
2026-04-26 02:10 -27.36085 153.14235 374 ft 128 kts 205°
2026-04-26 02:10 -27.36867 153.13777 219 ft 127 kts 206°
2026-04-26 02:11 -27.37653 153.13317 48 ft 125 kts 205°
2026-04-26 02:11 -27.38390 153.12906 29 ft 105 kts 207°
2026-04-26 02:11 -27.38948 153.12584 30 ft 77 kts 207°
2026-04-26 02:11 -27.39356 153.12353 29 ft 56 kts 207°
2026-04-26 02:12 -27.39642 153.12188 26 ft 36 kts 207°
2026-04-26 02:12 -27.39836 153.12078 30 ft 30 kts 206°
2026-04-26 02:12 -27.40016 153.11976 29 ft 28 kts 207°
2026-04-26 02:12 -27.40158 153.11892 25 ft 16 kts 207°
2026-04-26 02:13 -27.40261 153.11832 30 ft 17 kts 207°
2026-04-26 02:13 -27.40320 153.11737 29 ft 16 kts 259°
2026-04-26 02:13 -27.40292 153.11615 28 ft 13 kts 298°
2026-04-26 02:13 -27.40246 153.11513 28 ft 16 kts 292°
2026-04-26 02:14 -27.40199 153.11397 27 ft 16 kts 291°
2026-04-26 02:14 -27.40242 153.11299 27 ft 15 kts 220°
2026-04-26 02:14 -27.40329 153.11243 26 ft 13 kts 204°
2026-04-26 02:14 -27.40395 153.11209 28 ft 9 kts 204°
2026-04-26 02:15 -27.40415 153.11198 28 ft 0 kts 206°
2026-04-26 02:15 -27.40419 153.11196 28 ft 8 kts 207°
2026-04-26 02:15 -27.40479 153.11156 28 ft 6 kts 225°
2026-04-26 02:15 -27.40487 153.11110 25 ft 7 kts 278°
2026-04-26 02:16 -27.40468 153.11063 28 ft 6 kts 296°
2026-04-26 02:16 -27.40459 153.11042 28 ft 0 kts 297°